GFSMA_con_lsi_000.txt.gz
Lid_Strength_Index
-1 -1 -1 -1 -1 -1 -1 -1 -1 -1 -1 -1 -1 -1 -1 -1 -2 -1 -1 -1 -1 -1 -2 -2 -2 -2 -2 -2 -2 -2 -2 -2 -2 -2 -2 -2 -2 -2 -1 -2 -1 -1 -1
-1 -1 -1 -1 -1 -2 -1 -1 -1 -1 -1 -1 -1 -1 -1 -1 -1 -1 -2 -1 -1 -1 -1 -2 -2 -2 -2 -2 -2 -2 -1 -2 -2 -2 -2 -2 -2 -1 -1 -1 -1 -1 -1
-2 -1 -1 -0 -1 -2 -2 -1 -1 -1 -1 -1 -1 -1 -1 -1 -1 -1 -2 -1 -1 -1 -1 -1 -2 -2 -2 -2 -2 -2 -1 -2 -2 -2 -2 -2 -2 -1 -1 -1 -1 -0 -0
-2 -1 -1 -1 -2 -2 -1 -1 -0 -0 -0 -0 -0 -0 -1 -1 -1 -1 -2 -2 -2 -1 -1 -2 -2 -2 -2 -2 -2 -2 -1 -2 -2 -2 -2 -1 -1 -1 -1 -1 0 0 1
-2 -1 -1 -1 -2 -1 -1 -1 -0 -0 0 0 0 -0 -0 -1 -1 -1 -0 -1 -1 -1 -1 -1 -1 -1 -2 -2 -2 -2 -2 -2 -2 -2 -1 -1 -1 -1 -0 0 1 1 1
-1 -1 -1 -1 -1 -1 -1 -1 -0 -0 -0 0 1 0 -0 -1 -1 -0 -0 -1 -1 -1 -1 -1 -1 -2 -1 -2 -2 -2 -2 -2 -2 -1 -1 -1 -1 -0 0 1 1 1 1
-1 -1 -1 -1 -1 -0 -1 -1 -0 0 0 -0 1 2 1 -0 0 -0 -1 -0 -1 -1 -1 -1 -1 -1 -1 -1 -1 -2 -2 -1 -1 -1 -1 -1 -1 0 1 1 1 1 1
-1 -1 -1 -0 -1 -0 -0 -0 -0 1 0 -0 3 3 5 3 1 0 -0 0 -0 -0 -0 -1 -1 -1 -1 -1 -2 -2 -2 -2 -1 -0 -0 -1 0 1 1 1 1 2 2
-1 -1 -1 -1 -1 -1 0 -0 -0 0 2 1 1 3 6 7 4 1 1 1 0 0 -0 -0 -1 -1 -1 -1 -2 -2 -2 -1 -1 -0 -0 0 1 1 1 1 1 1 1
-0 -1 -1 -1 -1 -0 -0 -0 -1 -0 1 2 1 1 0 2 5 6 2 1 0 1 0 -0 -0 -1 -1 -1 -2 -2 -1 -1 -1 -0 0 1 1 1 1 1 1 -0 -0
-1 -1 -1 -1 -1 -1 -1 -0 -0 -0 0 2 2 2 1 2 2 4 6 4 3 1 -0 -0 -0 -1 -1 -1 -2 -1 -1 -1 -0 -1 -1 -0 1 1 0 -1 -1 -1 -1
-0 -0 -0 -0 -1 -1 -0 -0 -1 -0 0 0 1 1 2 3 3 3 4 4 4 4 1 -0 -0 -1 -2 -2 -2 -1 -0 0 1 0 -0 -0 -0 -2 -1 -1 -1 -1 -0
0 0 -0 -0 -0 -1 -1 -1 -0 -0 0 1 1 1 1 1 1 2 4 4 5 4 3 1 -1 -1 -1 -2 -2 -1 -0 1 2 2 1 1 -1 -2 -2 -1 -0 -0 -0
1 -0 0 -1 -1 -1 -1 -1 -0 -0 -0 0 1 1 1 1 1 1 3 5 6 5 3 2 0 -0 -2 -2 -1 -0 -0 1 2 1 0 -0 -1 -1 -1 -1 -1 -0 1
0 -0 -0 0 -1 -0 -0 -1 -0 0 0 0 1 1 1 2 1 2 2 2 3 5 4 2 2 -0 -1 -1 -1 -1 -1 0 0 1 1 1 0 0 -0 -0 1 1 2
0 0 -0 -0 -0 -1 -1 -0 0 -0 0 0 0 0 1 1 2 2 3 3 2 2 4 2 2 0 -1 0 0 -1 -2 -0 0 1 1 1 1 1 1 1 2 2 3
-1 0 1 0 0 -0 -0 -0 -0 0 1 1 0 1 1 0 2 2 2 2 1 1 3 2 1 -0 0 1 -0 -2 -2 -1 -0 1 2 2 2 2 2 2 3 3 4
-0 -0 0 0 0 0 -0 0 0 0 1 1 1 1 1 0 0 0 0 1 -0 -0 1 2 1 0 -0 -2 -2 -2 -2 -2 -2 2 2 3 3 3 3 4 4 4 5
-0 -0 -0 0 1 1 1 0 0 0 0 0 0 0 1 0 0 0 -0 0 1 1 0 2 1 -0 -0 -1 -1 -1 -1 -2 -1 3 3 4 4 4 5 5 5 5 6
-0 -0 -0 -0 0 0 0 0 0 0 0 0 -0 -0 -0 -0 0 -0 -0 -0 0 0 0 1 1 1 0 -1 -1 0 0 -0 1 3 4 5 4 4 5 5 5 6 7
-0 0 -0 -0 -1 -0 0 -0 -0 -0 -0 -0 -0 -0 -1 1 3 1 -0 -1 -1 0 1 1 1 1 1 1 1 0 1 -0 0 1 3 3 4 4 5 5 5 6 7
-0 0 0 -0 -0 0 7 5 1 -0 -0 -0 0 -0 -1 1 2 4 4 5 0 -1 -0 1 1 1 0 0 0 0 1 1 2 -0 1 2 3 4 4 5 6 7 7
-1 -1 -1 -1 -0 -1 7 6 4 -1 -0 -0 -0 -0 -0 -0 -0 -1 5 5 5 5 4 -1 0 0 0 -0 -1 0 0 1 1 -0 1 2 2 4 4 5 7 8 8
-0 -0 -0 -1 -1 1 8 7 4 -1 -1 -1 -1 -1 -1 -1 -1 -0 -0 -0 -0 -1 -1 -1 -1 -1 -1 -1 -1 -1 -0 -0 -0 -1 0 4 2 4 4 4 8 8 8
-0 -0 -0 -0 -0 -0 8 9 4 -1 -0 -1 -0 -0 -0 -0 8 7 0 -0 -0 -0 9 8 8 9 10 9 5 -1 1 2 3 2 1 4 4 4 4 4 5 8 9
-0 -0 -0 -1 1 -1 9 9 6 2 1 2 2 2 8 4 10 9 -0 -0 0 -0 1 2 1 5 8 5 10 3 3 4 4 4 2 4 5 5 6 4 4 5 7

GFSMA_con_lsi_003.txt.gz
Lid_Strength_Index
-1 -1 -0 -0 -0 -1 -1 -0 -1 -0 -1 -1 -1 -0 -1 -1 -1 -1 -2 -1 -1 -1 -1 -1 -1 -1 -2 -2 -1 -2 -2 -1 -2 -2 -2 -2 -2 -2 -1 -1 -1 -1 -1
-1 -0 -0 -0 -1 -1 -1 -1 -0 -1 -0 -1 -0 -0 -1 -1 -1 -1 -1 -2 -1 -1 -1 -1 -1 -2 -2 -2 -2 -2 -1 -1 -2 -2 -2 -2 -2 -1 -1 -1 -1 -1 -1
-1 -1 -1 -0 -1 -2 -1 -1 -0 -1 0 -0 -0 0 -1 -1 -1 -1 -1 -2 -1 -1 -1 -1 -2 -2 -2 -2 -2 -2 -1 -2 -2 -2 -2 -2 -1 -2 -2 -1 -2 -1 -0
-2 -1 -1 -1 -1 -1 -1 -0 -0 0 0 1 1 0 -0 -1 -1 -1 -1 -1 -1 -2 -1 -1 -1 -2 -2 -2 -2 -2 -1 -2 -2 -2 -2 -1 -2 -2 -2 -1 -1 -0 1
-1 -1 -1 -1 -1 -1 -1 -0 -0 0 1 1 1 0 -0 -0 -0 -1 -0 -1 -1 -1 -1 -1 -2 -1 -2 -2 -2 -2 -2 -1 -2 -2 -2 -2 -2 -2 -1 -0 0 1 1
-1 -1 -1 -1 -1 -1 -0 -0 0 0 1 1 1 1 0 -0 -0 -0 0 -1 -0 -1 -2 -1 -1 -0 -1 -2 -2 -2 -2 -2 -2 -2 -2 -2 -2 -1 -0 0 1 1 1
-1 -1 -1 -1 -1 -0 -0 -0 0 1 1 1 1 1 1 0 1 0 0 -0 -0 -1 -1 -1 -1 -0 -1 -1 -1 -2 -2 -2 -2 -2 -1 -2 -1 -1 0 1 1 1 1
-1 -1 -1 -0 -0 -0 -0 -0 0 1 1 0 2 3 5 3 2 1 0 0 0 -0 -0 -1 -1 -0 -0 -1 -1 -2 -2 -2 -2 -1 -1 -1 -1 -0 1 1 1 1 1
-1 -1 -1 -1 -0 -0 1 -0 -0 0 2 1 0 3 6 7 4 2 1 0 0 0 -0 -0 -1 -0 -1 -1 -1 -2 -2 -2 -1 -1 -0 -0 -0 0 1 1 1 1 1
-1 -1 -1 -1 -1 -0 -0 -0 -1 -0 1 2 1 0 0 2 5 6 2 1 1 1 0 -0 -0 -0 -1 -1 -1 -2 -1 -1 -1 -1 -0 0 0 1 1 1 1 1 -0
-0 -1 -1 -1 -1 -1 -0 -0 -0 0 -0 1 2 2 2 2 2 4 6 4 2 1 0 -0 -0 -0 -1 -1 -1 -1 -0 -1 -1 -1 -1 0 0 1 1 1 -0 -1 -1
0 -0 -0 -1 -1 -1 -0 -0 -0 0 0 0 1 1 2 3 4 4 5 4 4 2 1 0 -0 -0 -1 -1 -2 -0 -0 -0 0 0 -0 -0 -0 -0 -1 -1 -1 -1 -1
1 0 -0 -0 -0 -0 -0 -1 -0 0 0 1 1 1 1 2 1 2 3 4 4 4 3 1 -0 -0 -1 -1 -1 -0 -0 1 1 1 1 -0 -0 -2 -2 -2 -2 -1 -1
1 -0 -0 -0 -0 -0 -0 -1 -0 -0 -0 0 1 1 1 1 1 1 2 3 5 5 3 3 0 -1 -1 -2 -1 -0 0 1 1 2 2 1 -1 -2 -2 -2 -2 -2 -1
0 -0 -0 -0 -0 -0 -0 -0 0 0 0 0 1 1 1 1 1 1 1 1 3 6 5 2 2 -1 -2 -1 -1 -1 -1 1 1 1 0 0 -0 -1 -0 -1 -1 0 1
-0 0 -0 -0 -0 -0 -0 -0 0 -0 1 1 0 1 1 1 1 1 1 1 2 3 5 2 1 0 -1 -1 -0 -1 -1 1 0 1 1 1 1 1 0 0 1 1 2
0 0 -0 -0 0 0 -0 0 0 0 1 1 1 1 1 2 2 3 2 1 2 2 3 2 1 -0 -0 -1 -0 -1 -1 -1 0 1 1 1 2 2 1 1 2 2 3
0 0 0 0 0 0 0 0 1 1 1 1 1 1 1 1 2 2 2 1 1 1 2 3 1 1 0 -1 -1 -1 -1 -1 -2 1 1 2 2 3 3 3 3 3 4
1 0 0 1 0 0 0 0 0 1 1 1 1 1 1 1 1 1 1 1 1 1 1 1 2 0 0 -0 -0 -1 -1 -2 -1 1 2 3 3 3 3 3 4 4 5
0 0 0 1 0 0 0 0 0 0 0 1 1 0 0 1 1 1 1 1 0 1 1 1 1 1 1 -0 -0 1 1 -0 -0 1 2 3 4 4 3 4 4 4 5
-0 -0 0 0 -0 0 0 1 0 0 1 1 0 0 0 1 3 2 0 -0 -0 1 1 1 1 1 1 1 1 1 1 0 -0 -1 1 2 3 3 4 5 5 5 6
-0 -0 -0 0 0 2 8 5 1 0 0 1 1 0 1 2 4 6 4 4 -0 0 0 1 1 1 1 1 1 1 1 1 3 -1 0 0 0 2 2 2 5 7 7
-1 -1 -0 -0 0 1 8 7 3 -0 0 0 0 0 0 1 -0 -0 4 5 4 5 4 -1 0 0 0 0 -0 1 1 1 2 -0 0 1 -0 1 1 2 6 7 8
-0 -0 -0 -0 -0 2 7 7 4 -0 -0 -0 -0 -1 -0 -0 -0 -0 -0 -0 -0 -0 -1 -0 -1 -1 -1 -1 -1 -0 -0 0 0 -0 -1 2 0 1 -0 0 6 8 9
0 -0 -0 -0 -0 -0 8 8 4 -0 -0 -0 -0 -1 -0 -0 6 6 -0 0 0 -0 8 7 7 9 10 9 7 -0 1 2 2 1 -1 1 1 1 1 2 2 8 9
0 0 0 -1 1 -0 8 9 5 -0 0 0 -1 -0 6 2 8 8 -0 0 1 0 0 1 0 2 7 3 9 3 2 4 3 3 -0 2 2 2 4 2 2 5 7

GFSMA_con_lsi_006.txt.gz
Lid_Strength_Index
0 -0 -0 -0 -0 -1 -0 -0 0 0 0 -0 -0 -0 0 -0 -0 -0 -0 -1 -1 -1 -1 -2 -2 -1 -1 -1 -2 -2 -1 -1 -2 -1 -2 -2 -2 -2 -2 -1 -1 -1 -1
0 0 0 0 -0 -1 -1 -0 0 0 0 0 0 -0 0 -0 -0 -0 -0 -0 -1 -1 -1 -2 -1 -1 -2 -2 -2 -2 -1 -1 -2 -2 -2 -2 -2 -1 -1 -1 -1 -1 -0
-0 -0 0 0 -0 -1 -0 -0 0 -0 0 0 0 0 0 -0 -0 -0 -0 -0 -1 -1 -2 -2 -2 -2 -2 -2 -2 -2 -1 -2 -2 -2 -1 -1 -1 -1 -1 -2 -1 -0 -1
-1 -0 0 0 -0 -0 -0 0 0 1 1 1 1 1 0 0 0 -0 -0 -0 -0 -1 -1 -2 -1 -1 -2 -2 -2 -2 -2 -1 -1 -1 -1 -1 -1 -1 -1 -1 -1 -1 0
-1 -0 0 -0 -0 0 0 0 1 1 2 1 1 1 1 1 0 -0 0 -0 -0 -0 -1 -1 -1 -1 -1 -2 -2 -2 -2 -2 -1 -1 -1 -1 -1 -1 -1 -1 -0 0 1
-1 -0 -0 0 -0 0 1 1 1 1 1 1 1 1 1 0 0 0 0 -0 -0 -0 -1 0 0 -1 -1 -2 -2 -2 -2 -1 -1 -1 -1 -1 -2 -1 -0 -1 -0 0 1
-0 -0 0 0 0 1 1 1 1 2 2 1 2 2 2 1 1 1 0 0 0 -0 -0 -1 -0 0 -0 -1 -1 -2 -1 -2 -2 -2 -2 -2 -2 -1 -1 -0 1 1 1
-0 -0 0 0 0 1 1 1 1 2 2 1 3 3 5 4 2 1 1 1 0 -0 -0 0 -0 0 0 0 -1 -1 -2 -2 -2 -1 -1 -1 -0 -1 -0 0 1 1 1
-0 -0 0 0 0 0 1 1 1 2 3 2 1 3 6 7 4 2 1 1 1 0 0 0 0 0 0 -0 -1 -1 -2 -2 -2 -1 -0 -1 -0 -0 0 1 1 1 1
-0 -0 -0 0 0 0 1 1 1 1 2 3 2 1 2 3 6 6 2 2 1 1 0 0 1 0 -0 -1 -1 -1 -1 -2 -1 -0 -0 -0 -0 0 1 1 1 1 0
-0 -0 -0 0 0 0 0 1 1 1 1 2 2 2 2 2 2 4 6 4 2 1 0 0 0 0 -0 -0 -1 -1 -1 -1 -0 -1 -1 -0 0 0 0 1 1 -1 -1
0 -0 -0 -0 -0 0 1 1 0 1 1 1 2 2 3 4 4 4 5 4 4 2 1 0 1 1 0 -0 -1 -0 0 1 1 0 0 -0 -0 -0 0 -1 -1 -1 -1
1 1 0 0 0 0 0 0 1 1 1 1 1 2 1 2 2 2 3 4 4 3 2 1 0 0 -0 -0 -0 0 0 1 1 1 1 1 -0 -1 -1 -3 -2 -2 -1
1 0 0 0 0 0 0 0 1 1 1 1 1 1 1 1 1 1 3 4 5 4 3 2 1 0 -0 -0 0 0 1 1 1 2 1 1 0 1 -2 -2 -2 -2 -2
0 0 0 0 0 0 0 0 1 1 1 1 1 1 1 1 1 1 2 2 4 6 5 3 2 0 -0 -0 0 1 1 1 1 2 2 2 1 -1 -1 -1 -1 -1 -1
0 1 1 0 1 0 0 1 1 1 1 1 1 1 1 1 1 1 1 1 2 3 5 3 2 1 -0 -0 0 0 0 1 0 1 0 0 1 0 0 0 -0 0 0
0 1 1 1 1 1 1 1 1 1 1 1 1 1 1 1 1 1 1 2 2 2 4 3 1 0 0 0 1 -0 -0 1 1 1 0 1 2 1 1 1 1 1 1
0 1 1 1 1 1 1 1 1 1 1 2 1 1 1 1 1 2 2 2 2 2 2 4 2 1 1 1 1 1 0 1 2 1 1 2 2 2 2 2 3 3 3
1 0 1 1 1 1 1 1 1 1 1 1 1 1 1 1 2 2 2 2 1 1 2 2 3 2 1 1 2 0 0 1 0 1 2 2 2 3 3 3 3 4 4
1 1 0 1 1 1 1 1 1 1 1 1 1 1 2 2 2 2 2 2 1 2 2 2 2 2 2 1 1 2 2 1 1 2 2 3 3 3 3 4 3 3 5
1 1 1 0 1 1 1 1 1 1 1 1 1 1 1 1 2 1 1 1 1 2 2 3 3 3 3 3 3 2 2 2 1 0 3 5 5 6 6 4 4 4 5
1 1 1 1 1 4 9 5 1 1 1 1 1 1 2 4 4 5 4 3 1 2 3 3 3 3 3 2 2 2 2 3 4 1 2 3 5 6 6 6 6 6 6
1 1 1 1 1 3 8 7 5 1 1 1 1 2 2 2 1 2 5 5 4 5 3 1 3 3 3 2 2 2 2 3 3 2 2 3 1 2 3 3 5 7 7
1 1 1 1 2 6 7 7 4 1 1 1 1 1 2 1 1 1 1 1 1 1 1 0 1 1 1 2 1 1 2 2 1 1 1 3 2 2 2 1 5 7 8
1 1 1 1 1 3 8 9 3 1 1 1 1 1 1 1 6 6 1 2 2 2 6 7 8 9 10 10 8 2 2 3 4 3 2 2 2 3 2 2 2 7 8
1 1 1 1 1 1 8 8 6 1 2 1 1 4 7 2 8 7 1 2 2 2 3 4 3 6 8 6 9 5 5 6 7 7 5 7 7 7 8 5 6 7 8

GFSMA_con_lsi_009.txt.gz
Lid_Strength_Index
1 1 1 1 1 1 1 1 1 1 1 1 0 0 0 1 -0 0 1 -1 -1 -1 -1 -2 -2 -1 -1 -1 -1 -1 -2 -1 -1 -1 -2 -2 -1 -1 -1 -2 -2 -1 -1
0 1 1 1 1 1 1 1 1 1 1 2 0 0 0 0 0 0 0 -0 -1 -1 -1 -2 -2 -1 -1 -2 -1 -2 -2 -1 -1 -1 -2 -2 -1 -0 -1 -2 -1 -1 -0
0 1 1 1 1 1 1 1 1 1 1 1 1 0 0 0 0 0 0 -0 -0 -1 -1 -2 -2 -2 -2 -2 -2 -2 -2 -1 -1 -1 -1 -1 -1 -1 -1 -1 -0 -0 -0
-0 1 1 1 1 1 1 1 1 1 1 2 2 2 1 0 -0 0 -0 -0 -0 -0 -1 -2 -1 -2 -2 -2 -2 -2 -2 -1 -1 -1 -1 -1 -0 -1 -1 -0 0 -1 -0
-0 1 1 1 1 1 1 1 1 1 2 2 2 1 1 2 0 -0 -0 -0 -0 -0 -0 -1 -2 -1 -2 -2 -2 -2 -2 -1 -1 -1 -0 0 -0 -1 -1 -0 -1 -0 1
-0 1 1 1 1 1 2 1 2 2 2 3 1 1 1 2 0 1 0 0 -0 -0 -0 -0 -1 -1 -1 -2 -2 -2 -2 -1 -0 -0 -1 -1 -1 -0 -1 -1 -0 0 1
1 1 1 1 1 2 2 1 2 2 3 3 3 2 2 1 1 1 0 0 0 0 0 -0 -0 0 0 -1 -1 -2 -2 -1 -1 -0 -1 -1 -1 -2 -1 -1 -0 0 1
1 0 1 2 1 2 1 2 2 3 3 2 3 4 5 4 2 1 1 1 1 1 0 -0 1 0 0 0 -0 -1 -2 -1 -1 -1 -1 -1 -1 -0 -1 -1 0 1 1
0 1 1 1 1 2 2 2 2 3 4 3 2 4 6 7 4 2 2 1 1 0 0 0 1 -0 0 0 -0 -1 -2 -2 -2 -1 -1 -0 -1 -1 -0 0 1 1 1
1 1 1 1 2 1 2 1 1 2 2 3 2 2 3 3 6 6 2 2 1 1 1 0 1 0 1 0 -0 -1 -1 -1 -2 -1 -1 -1 -1 -0 0 0 1 1 1
1 0 1 1 2 2 2 1 2 2 1 2 2 3 3 3 3 4 6 4 2 1 1 1 0 1 0 0 -0 -1 -0 -1 -1 -1 -1 -1 -0 -0 0 0 1 1 -0
1 1 1 1 1 2 2 2 1 1 1 2 3 3 3 4 4 4 5 4 4 2 1 1 1 0 0 0 -1 -0 1 1 1 1 0 -0 -1 -0 0 0 -0 -1 -1
2 2 2 2 1 1 1 1 1 1 1 2 2 3 2 2 2 2 3 4 4 2 2 1 1 1 0 -0 -0 0 0 2 2 2 1 1 0 -0 -1 -1 -2 -2 -2
2 1 1 1 1 1 1 1 2 1 1 1 2 2 2 1 1 2 3 4 5 4 3 3 1 1 0 0 0 0 1 2 2 2 2 1 1 0 -0 -0 -2 -2 -2
1 1 1 2 1 1 1 1 1 1 1 1 2 2 1 1 1 2 1 2 4 6 5 3 2 1 0 1 1 2 2 2 1 2 2 2 2 2 0 -1 -1 -1 -1
2 2 1 2 1 1 1 1 1 2 2 2 1 1 1 1 2 1 1 1 2 4 5 3 2 1 0 0 0 1 2 1 2 2 2 2 1 1 0 0 0 -0 -1
1 2 1 1 1 1 1 1 1 1 1 1 1 2 2 1 1 2 1 1 2 2 4 3 2 1 1 1 1 1 1 2 2 1 0 1 2 2 1 1 1 1 0
2 1 1 1 1 1 1 1 1 1 1 2 2 2 1 1 2 1 1 1 2 2 2 4 2 2 2 2 2 1 1 1 2 0 1 1 2 3 3 2 2 2 3
2 2 1 1 1 1 1 1 1 1 1 1 2 2 1 2 2 1 1 1 2 1 2 3 3 3 3 3 3 2 2 2 2 1 2 2 3 3 3 3 3 4 4
2 2 1 1 1 1 1 1 1 1 1 1 1 1 1 1 2 2 2 2 2 2 3 3 3 4 4 3 3 3 2 3 3 3 3 4 4 3 3 3 4 4 5
1 1 2 1 1 1 1 1 1 1 1 1 1 1 1 2 2 2 2 2 2 2 3 3 4 4 4 3 4 2 3 3 4 4 6 5 5 6 5 4 4 3 5
1 2 3 3 3 3 6 5 2 1 1 1 2 1 2 2 3 4 4 3 2 2 4 4 4 4 3 3 3 3 4 5 4 2 4 6 6 7 6 7 6 6 6
3 3 3 4 5 6 7 6 4 1 1 2 2 2 2 1 3 3 6 6 6 5 3 3 3 3 4 3 3 4 4 3 4 3 4 5 5 6 6 5 6 7 6
2 3 3 5 7 9 9 7 5 1 2 2 2 3 3 3 3 5 4 3 3 2 3 1 2 3 3 3 2 2 3 3 4 3 3 5 3 4 3 3 5 6 7
2 2 3 5 6 8 9 6 2 2 3 3 3 4 2 3 6 5 2 2 3 5 8 8 9 10 11 8 5 4 5 6 7 6 6 7 8 8 8 7 6 7 8
3 1 2 4 6 8 11 9 4 2 4 4 4 4 5 4 8 5 2 3 3 4 5 6 6 8 9 8 7 6 5 8 8 9 6 8 8 8 8 6 6 6 7

GFSMA_con_lsi_012.txt.gz
Lid_Strength_Index
2 1 0 1 2 1 1 2 2 1 2 1 2 1 0 0 0 -0 0 -1 -1 -1 -1 -2 -2 -2 -2 -2 -1 -1 -0 -1 -2 -1 -1 -1 -1 -1 -1 -1 -1 -2 -2
2 1 2 2 2 2 1 1 2 2 2 2 2 1 0 0 0 0 0 0 -1 -1 -1 -1 -2 -2 -2 -1 -1 -0 -0 -1 -1 -1 -1 -1 -1 -0 -0 -1 -1 -2 -1
1 1 2 2 2 2 2 1 1 1 2 2 2 1 0 0 0 0 0 1 -0 -1 -1 -1 -1 -2 -2 -1 -1 -1 -1 -1 -1 -1 -0 -0 -1 -1 -1 -1 -1 -1 -0
1 2 2 2 1 2 2 2 2 2 2 2 2 1 1 1 0 0 0 1 1 -0 -1 -1 -1 -2 -2 -1 -1 -1 -2 -1 -1 -0 -0 0 -0 -1 -1 -1 -1 -0 -0
1 2 1 2 2 2 2 2 2 2 2 3 2 2 2 2 1 0 0 1 0 0 -0 -1 -1 -1 -1 -2 -2 -2 -2 -1 -1 -0 -0 0 0 -1 -0 -0 -0 -0 -0
1 2 2 2 2 3 2 2 2 1 2 2 1 2 3 2 0 1 0 0 0 0 0 -0 -0 -1 -1 -1 -2 -2 -2 -1 -0 0 -0 -0 -0 -1 -1 -1 -0 -0 1
2 2 2 2 2 2 2 2 2 2 3 3 3 4 3 2 1 1 1 0 1 0 0 0 -0 -1 -1 -1 -1 -2 -2 -1 -1 -0 -0 0 -1 -1 -1 -0 -1 0 1
1 2 2 2 2 2 2 2 2 3 3 3 4 4 6 4 2 1 1 1 1 1 0 0 0 -0 0 -0 -1 -1 -2 -1 -1 -1 0 -1 -2 -1 -1 -1 -0 0 1
0 1 1 2 2 2 2 3 2 3 4 3 2 3 6 7 4 2 2 1 2 1 1 1 1 0 0 0 -0 -1 -1 -1 -2 -1 -1 -1 -1 -1 -1 -1 -0 1 1
1 1 1 2 2 2 2 2 2 3 3 3 2 1 2 3 6 6 2 2 1 1 1 1 0 0 0 0 -0 -1 -1 -1 -2 -1 -1 -1 -1 -0 -0 -0 0 1 1
1 1 1 2 2 2 2 2 2 2 2 2 2 3 3 4 3 4 6 4 2 1 1 1 0 1 0 0 0 -0 -0 -1 -1 -1 -1 -1 -1 -1 -0 0 0 0 1
2 1 1 2 2 2 2 3 3 2 3 2 2 3 3 4 4 4 5 4 4 2 1 0 1 0 0 0 -1 -0 0 1 1 0 -0 -1 -1 -0 -0 0 0 1 1
3 3 2 2 2 2 2 2 2 1 2 2 2 3 3 2 2 2 3 4 4 3 2 1 1 0 0 0 -0 -0 0 2 2 2 1 1 -0 -0 -1 -0 -0 -1 -1
3 2 2 2 2 1 2 2 2 2 1 2 3 3 3 2 1 2 3 4 5 4 3 3 1 0 0 0 0 0 1 2 3 3 2 2 1 1 0 -0 -1 -2 -2
2 2 2 2 2 2 2 2 2 2 2 2 2 2 2 2 2 1 1 2 4 6 5 3 3 1 0 0 0 1 2 2 2 2 3 2 2 2 1 1 -1 -1 -1
2 2 2 2 2 2 2 1 1 2 2 2 1 2 2 2 2 2 1 2 2 3 5 3 2 1 1 1 0 2 2 2 2 3 2 2 3 1 0 0 0 -0 -1
2 2 2 2 2 2 2 2 2 2 2 2 2 2 2 2 2 2 1 1 2 2 4 3 2 1 1 2 1 2 2 2 2 3 1 1 2 2 1 1 1 1 0
2 2 2 2 2 2 2 2 2 2 2 2 2 1 2 1 2 2 1 2 2 2 2 4 2 2 2 2 2 2 1 1 2 0 1 1 2 2 2 2 3 2 2
2 1 1 2 1 1 1 2 1 2 2 2 2 1 2 1 2 2 2 2 2 2 2 3 3 2 3 2 3 3 3 3 2 1 2 2 2 2 3 3 3 3 4
2 2 1 1 1 1 1 1 1 2 2 2 1 1 1 1 2 2 2 1 2 2 2 3 3 4 4 4 4 3 4 3 3 2 3 4 3 3 3 3 4 4 5
2 1 1 1 1 1 1 1 1 1 1 1 1 1 1 2 2 2 1 1 2 3 3 3 4 4 5 5 6 4 4 3 4 3 6 5 5 6 5 4 3 3 4
3 3 2 2 2 2 7 5 2 1 1 1 2 1 1 2 3 5 4 4 3 3 4 4 5 5 5 4 3 4 3 4 5 3 5 4 6 6 6 6 6 6 7
4 5 4 3 3 3 8 7 5 1 1 1 2 2 1 1 2 2 5 5 5 5 4 3 4 4 4 2 3 4 4 5 5 3 4 5 4 4 5 4 6 7 7
4 6 6 6 4 4 8 7 6 1 2 2 2 2 1 2 2 2 3 4 4 4 3 2 3 3 3 2 2 3 3 4 5 6 5 5 6 7 5 6 6 6 6
4 5 7 7 6 6 9 8 4 2 2 3 2 2 3 3 7 8 4 4 6 8 8 8 7 7 8 8 5 4 6 6 8 7 6 7 8 8 7 7 7 7 7
3 4 6 6 8 9 10 8 5 3 4 5 4 4 7 5 10 9 4 4 6 7 8 8 9 10 8 8 7 6 6 8 9 9 7 8 8 8 8 7 7 7 8

GFSMA_con_lsi_015.txt.gz
Lid_Strength_Index
3 2 2 1 1 2 2 2 1 2 2 1 2 2 1 0 0 1 0 -1 -1 -1 -1 -1 -1 -2 -1 -1 -1 -1 -1 -0 -1 -1 -1 -1 -1 -0 -0 -1 -2 -2 -2
3 2 1 2 2 2 2 2 2 2 2 2 2 2 2 0 0 1 0 0 -1 -1 -1 -1 -1 -2 -2 -2 -2 -1 -1 -1 -2 -1 -1 -1 -0 0 0 -0 -1 -1 -2
2 2 2 2 2 2 2 2 2 2 2 2 2 2 1 1 0 0 0 0 0 -1 -1 -1 -1 -2 -2 -2 -2 -1 -0 -1 -1 -1 -1 -1 -0 0 0 -0 -1 -1 -1
2 2 3 3 2 2 2 2 2 2 3 3 3 3 1 1 0 0 0 0 1 0 -1 -1 -1 -1 -1 -2 -1 -1 -0 -1 -1 -1 -1 -0 0 0 -0 -0 -0 -0 -0
1 2 3 2 2 2 3 2 3 2 3 3 2 2 2 2 1 -0 0 1 1 1 0 -1 -1 -1 -1 -2 -1 -1 -1 -1 -1 -1 -0 -0 0 1 0 -0 0 -0 0
1 3 3 2 2 3 3 3 3 2 3 3 2 2 3 3 2 1 1 0 0 1 0 -0 -0 -1 -1 -1 -1 -1 -2 -1 -1 -0 -0 -0 0 0 0 0 -0 -0 0
2 2 3 2 2 3 3 2 3 2 3 3 3 4 2 1 2 2 2 1 1 -0 -0 0 0 -0 -1 -1 -1 -1 -2 -2 -1 -0 -0 0 -0 -0 -0 -0 -0 -0 1
2 2 3 2 3 3 3 3 2 2 3 3 4 5 6 4 2 1 1 1 1 0 1 0 -0 0 0 -0 -1 -1 -1 -1 -1 -0 -0 -0 -1 -1 -1 -1 -1 0 0
1 1 1 2 3 3 3 3 3 3 4 3 3 4 6 7 4 2 2 1 1 1 1 1 1 0 0 -0 -0 -1 -1 -1 -1 -0 -0 -1 -1 -1 -1 -1 -0 0 0
1 1 1 2 2 2 3 3 2 3 3 4 3 2 3 3 6 6 3 2 1 2 1 0 0 0 0 0 -1 -1 -0 -1 -1 -1 -1 -1 -1 -1 -1 -0 0 0 1
1 1 2 2 2 3 3 2 3 3 3 3 3 3 3 3 3 4 6 4 2 1 1 1 0 0 0 0 0 -0 -0 -1 -1 -1 -1 -1 -1 -1 -1 -0 -0 0 1
2 2 2 2 2 3 2 2 3 3 3 2 2 2 3 4 4 4 5 4 4 2 1 1 1 1 0 0 -0 -0 0 1 1 0 -0 -1 -1 -1 -0 0 0 0 1
3 3 3 2 3 3 2 3 2 3 2 2 2 2 3 3 2 3 3 4 4 3 2 1 1 1 0 0 -0 -0 0 1 2 2 1 0 -1 -1 -1 -0 -0 0 1
3 3 3 2 2 2 2 2 3 3 2 2 2 3 2 3 2 2 3 4 5 4 3 3 1 0 1 0 -0 -0 1 2 2 2 2 2 1 0 0 0 0 0 -1
2 2 2 2 2 2 2 3 2 2 2 2 3 3 2 3 2 1 1 2 4 6 5 3 3 1 1 0 0 1 1 2 2 3 3 3 2 2 2 1 1 -0 -1
3 2 2 2 2 2 2 1 1 1 1 1 2 2 2 1 2 1 1 2 2 3 5 3 2 1 1 0 -0 1 1 2 3 2 3 3 3 3 2 1 0 -0 -1
3 3 2 2 3 2 2 2 2 2 2 2 2 2 2 2 2 1 1 2 2 2 4 3 1 1 1 1 1 2 2 2 2 3 3 2 2 2 1 1 1 1 0
3 2 2 2 2 2 3 2 2 2 2 2 2 2 2 2 2 1 1 2 2 2 3 4 2 2 2 2 2 2 2 1 3 3 3 2 2 2 2 2 2 2 2
3 2 2 2 2 2 2 2 2 2 2 1 1 2 2 1 2 1 1 2 2 2 2 2 3 2 2 2 3 2 3 3 2 1 2 1 2 2 2 3 3 4 4
2 2 2 2 2 2 2 2 2 2 2 1 1 1 1 1 2 2 2 2 2 2 2 2 3 4 3 4 4 4 5 4 3 2 2 3 4 3 3 4 4 3 5
2 2 2 2 2 1 1 2 2 2 2 1 1 1 1 2 2 2 1 2 2 2 3 3 4 4 5 5 5 5 4 4 3 3 4 5 5 5 5 5 4 3 4
3 1 2 1 1 1 7 5 2 1 1 1 2 2 2 3 4 5 4 4 3 3 4 4 5 5 6 5 6 6 4 4 5 4 4 4 6 5 4 5 5 6 7
4 3 2 2 2 3 8 8 5 1 1 1 1 1 1 1 2 2 6 5 5 6 5 4 5 5 5 4 4 4 4 4 5 5 5 5 5 6 5 5 6 6 7
5 4 4 3 3 4 9 8 6 1 2 2 1 1 2 2 2 2 2 3 4 4 4 3 3 3 3 3 3 2 3 4 5 7 6 5 8 8 7 6 6 7 7
6 6 6 4 4 4 10 9 4 2 2 2 2 2 1 2 8 7 3 5 7 7 9 7 9 9 10 6 4 3 5 6 8 7 7 8 8 7 7 7 6 7 8
6 6 6 5 6 5 10 9 5 3 4 3 3 3 6 3 10 9 4 6 7 8 7 8 9 9 8 8 7 5 6 8 9 9 7 7 8 8 8 8 8 9 9

GFSMA_con_lsi_021.txt.gz
Lid_Strength_Index
-0 -1 -1 -1 -1 -1 -1 -1 -1 -1 -1 -1 -1 -1 -1 -1 -1 -1 -1 -1 -1 -1 -1 -1 -1 -1 -1 -1 -1 -1 -1 -1 -1 -1 -1 -1 -1 -1 -1 -1 -1 -0 -0
-1 -0 -0 -0 -1 -1 -1 -1 -0 -0 -0 -1 -1 -1 -1 -1 -1 -1 -1 -2 -1 -1 -1 -1 -1 -1 -1 -1 -1 -1 -1 -1 -1 -1 -1 -1 -1 -2 -1 -1 -0 0 0
-1 -1 -0 -0 -1 -1 -1 -1 -1 -1 -0 -0 -0 -0 -1 -1 -1 -1 -1 -1 -1 -1 -1 -1 -1 -1 -1 -1 -2 -1 -1 -1 -1 -1 -1 -1 -1 -2 -1 -0 0 0 1
-1 -1 -0 -0 -1 -1 -1 -0 -0 0 0 0 0 -0 -0 -1 -1 -1 -1 -1 -1 -1 -1 -1 -1 -1 -1 -2 -2 -2 -1 -1 -1 -1 -1 -1 -1 -1 -0 0 1 1 1
-1 -1 -0 -0 -1 -0 -0 -0 0 0 1 1 0 -0 -0 -0 -1 -1 -1 -1 -1 -1 -1 -1 -1 -1 -1 -1 -2 -2 -2 -1 -1 -1 -1 -1 -1 -1 -0 0 1 1 1
-1 -1 -0 -0 -1 -0 0 0 0 0 0 0 1 1 -0 -1 -1 -1 -1 -1 -1 -1 -2 -1 -2 -1 -1 -1 -1 -2 -2 -2 -1 -1 -1 -1 -1 -1 -0 1 1 1 1
-1 -1 -0 -0 -0 0 0 0 0 1 1 0 1 2 1 -0 -0 -1 -1 -1 -0 -1 -1 -1 -1 -1 -1 -1 -1 -2 -2 -2 -1 -1 -1 -1 -1 -0 0 1 1 1 0
-1 -0 -0 0 -0 0 0 0 0 1 1 0 2 2 4 2 1 0 -0 -0 -0 -1 -0 -1 -1 -1 -1 -1 -1 -1 -2 -1 -2 -1 -1 -1 -0 0 0 0 -0 -0 -0
-1 -0 -0 -0 -0 -0 0 0 0 1 2 1 0 2 5 5 3 1 1 0 0 0 -0 -0 -1 -1 -1 -1 -1 -1 -1 -1 -1 -1 -1 0 1 -0 -0 -0 -0 -0 -0
-1 -0 -1 -0 -0 -0 0 0 0 0 1 2 1 0 0 2 4 5 2 1 0 1 0 -0 -0 -1 -1 -1 -1 -1 -1 -1 -1 -0 0 0 -1 -1 -1 -1 -1 -0 -0
-1 -0 -1 -1 -0 -0 -0 -0 0 0 0 1 1 1 1 1 1 3 6 4 2 1 0 1 0 -0 -0 -1 -0 -1 0 0 0 0 -1 -1 -1 -1 -1 -1 -1 -0 0
-0 -0 -0 -0 -1 -0 -0 0 -0 -0 0 0 0 1 1 2 3 3 4 4 4 2 1 0 0 0 0 -0 -0 1 1 1 2 1 -0 -1 -1 -2 -1 -1 -1 -0 0
1 0 -0 -0 -0 -0 -0 -0 -0 0 0 1 1 1 0 1 1 1 3 4 4 3 2 0 0 0 0 1 1 0 1 2 2 2 1 0 -1 -1 -1 -1 -1 -0 0
1 -0 -0 -1 -0 -0 -0 -0 0 0 -0 -0 0 0 0 0 0 0 2 3 5 4 3 3 0 0 1 1 0 0 1 2 2 3 2 1 1 -0 -0 -0 -0 -0 -0
0 -0 -0 -0 -0 -0 -0 -0 0 0 0 0 1 1 1 0 0 0 1 1 3 6 5 3 3 1 1 0 0 0 0 2 2 3 3 2 2 1 1 1 1 1 1
-0 -0 -0 -0 -0 -0 -0 -0 0 -0 0 1 1 1 1 1 0 0 1 1 2 3 5 2 2 2 1 1 0 1 1 1 3 3 3 3 3 3 2 2 2 1 1
-0 0 0 0 0 0 0 0 0 0 1 1 1 1 1 0 1 1 0 1 2 2 4 3 1 1 1 1 1 1 1 1 2 3 3 3 4 3 3 2 1 0 0
-0 0 0 0 1 1 0 1 1 1 1 1 1 1 1 1 1 1 1 1 1 1 2 4 2 2 2 1 1 2 1 1 1 3 3 4 4 2 2 1 2 2 3
0 0 0 0 1 1 1 0 1 1 1 1 1 1 1 1 2 1 1 1 1 1 1 2 3 2 2 1 2 2 1 1 2 2 4 4 2 2 2 2 3 4 5
0 0 0 0 1 1 1 1 1 1 1 1 1 0 1 1 1 1 1 1 1 2 2 2 2 3 2 2 2 3 3 2 2 1 4 3 2 3 3 4 4 5 6
0 0 0 0 1 1 1 1 0 1 1 1 1 1 0 1 2 2 1 1 1 2 2 3 3 3 3 3 3 3 2 2 1 1 0 -0 1 2 3 4 4 5 6
0 0 0 1 1 1 7 5 2 1 1 1 1 1 1 2 4 5 5 4 2 2 3 3 3 4 3 3 3 2 2 2 3 -1 1 3 2 2 3 4 6 7 7
1 1 1 1 1 1 7 6 4 0 1 1 1 1 1 1 1 1 6 6 6 6 5 2 3 3 3 2 1 1 1 1 2 0 2 3 2 3 4 5 7 8 8
1 1 1 1 1 2 9 8 5 0 1 0 0 1 1 0 1 0 1 2 1 2 2 2 2 1 -0 -1 -0 -0 0 0 0 0 -1 3 2 4 4 5 7 8 9
1 1 1 1 3 5 10 9 3 1 1 1 0 0 0 0 8 6 2 3 3 4 8 10 9 8 9 7 3 -0 1 2 2 2 0 2 2 3 3 4 6 8 10
1 1 1 1 4 3 10 9 4 1 2 2 1 0 6 3 10 7 0 1 2 2 2 2 2 4 2 3 4 -1 0 2 2 2 1 2 2 2 3 3 5 6 7

GFSMA_con_lsi_024.txt.gz
Lid_Strength_Index
-1 -1 -1 -1 -1 -1 -1 -1 -1 -1 -1 -1 -1 -1 -0 -1 -2 -1 -1 -2 -1 -1 -1 -1 -1 -1 -1 -1 -1 -1 -1 -1 -1 -1 -2 -2 -2 -1 -1 -1 -1 -1 -1
-1 -1 -1 -0 -0 -1 -1 -1 -1 -1 -1 -1 -1 -1 -1 -1 -1 -2 -1 -2 -2 -1 -1 -1 -1 -1 -1 -1 -1 -1 -1 -1 -1 -1 -1 -1 -1 -1 -1 -1 -1 -0 -0
-1 -1 -1 -0 -1 -1 -1 -1 -1 -1 -0 -1 -0 -1 -1 -1 -1 -1 -1 -2 -2 -1 -1 -1 -1 -1 -1 -1 -1 -1 -1 -1 -1 -1 -1 -1 -1 -1 -1 -1 -0 0 1
-2 -1 -0 -0 -1 -1 -1 -0 -0 0 0 0 -0 -0 -1 -1 -1 -1 -1 -2 -2 -2 -1 -1 -1 -1 -1 -1 -2 -1 -1 -1 -1 -1 -0 -0 -0 -1 -1 -0 0 1 1
-1 -1 -0 -0 -1 -0 -0 -0 -0 -0 1 0 0 -0 -0 -1 -1 -1 -1 -1 -2 -2 -2 -1 -2 -1 -1 -1 -2 -2 -1 -1 -1 -1 -0 -1 -1 -1 -0 0 1 1 1
-1 -1 -0 -1 -0 0 0 -0 -0 -0 0 0 1 1 -0 -0 -1 -1 -1 -1 -1 -2 -2 -2 -2 -1 -1 -1 -2 -2 -2 -2 -1 -1 -1 -1 -1 -1 -1 -0 1 1 1
-1 -0 -0 -0 0 0 1 -0 0 1 1 -0 1 1 1 -0 -0 -0 -1 -1 -1 -1 -2 -1 -2 -1 -1 3 -1 -1 -2 -2 -2 -2 -1 -1 -1 -1 -0 0 1 1 1
-1 -0 -0 -0 -0 0 0 -0 0 1 1 -0 2 2 4 2 1 0 -0 -0 -0 -1 -1 -1 -1 -2 -1 1 -1 -1 -2 -2 -2 -2 -1 -1 -1 -0 0 1 1 1 1
-1 -0 -0 -0 -0 -0 0 0 0 1 2 1 0 2 4 5 3 1 0 0 -0 -0 -1 -1 -1 -1 -1 -1 -1 -1 -1 -1 -2 -2 -1 -1 -0 0 1 0 1 0 0
-1 -1 -1 -0 -1 -1 -0 -0 -0 0 0 2 1 0 0 1 4 5 1 1 -0 0 -0 -1 -1 -1 -1 -1 -1 -1 -1 -1 -1 -1 -0 1 1 1 -0 0 0 0 0
-0 -1 -1 -1 -1 -1 -1 -1 -0 0 -0 1 1 1 1 1 1 3 5 3 1 1 -0 -0 -0 -0 -1 -1 -1 -0 -0 -0 0 0 0 0 -0 -0 -0 -0 -0 -0 -0
-0 -1 -1 -1 -1 -1 -0 -0 -0 -0 -0 0 0 1 1 2 2 2 4 4 4 2 1 0 0 -0 -0 -1 -1 -0 0 1 2 1 1 -0 -1 -1 -1 -1 -1 -0 -0
1 -0 -1 -1 -0 -1 -1 -1 -0 -0 -0 0 0 1 0 0 0 1 2 4 4 3 2 0 0 -0 -0 0 -0 0 1 2 2 2 2 1 -0 -1 -1 -1 -1 -0 -0
0 -1 -1 -1 -0 -1 -1 -1 -0 0 -0 -0 0 0 0 -0 -0 -0 1 3 5 4 3 3 0 -0 0 1 1 1 2 2 2 2 3 2 1 -0 -0 -0 -1 -0 -0
-0 -0 -1 -0 -1 -1 -1 -1 -0 0 -0 -0 -0 -0 0 1 -1 0 0 1 3 6 5 3 3 1 1 1 1 1 1 2 2 3 3 3 2 1 1 1 1 0 0
-0 -0 -0 -0 -0 -0 -0 -0 0 -0 0 1 1 1 0 -0 -0 0 0 1 1 3 5 2 2 1 1 1 0 1 1 2 3 3 3 3 3 2 2 2 2 1 1
-0 -0 -0 -0 0 -0 -1 -0 -0 0 1 0 0 1 1 0 1 1 0 1 2 2 4 3 2 1 2 1 1 1 1 1 1 3 3 3 3 3 2 2 2 1 -0
-0 -0 -0 0 0 -0 -1 1 1 0 1 1 1 1 1 1 1 1 1 1 1 1 3 4 2 2 2 2 1 2 2 1 1 3 3 4 4 4 3 2 2 2 3
-0 -0 -0 0 0 0 1 0 0 1 1 1 1 1 1 1 1 1 1 1 1 1 1 2 3 2 2 2 2 2 2 2 2 3 4 4 4 4 2 3 4 4 5
0 -0 -0 0 0 0 0 0 1 1 1 0 0 0 1 1 1 1 1 1 1 2 2 2 3 3 2 2 2 3 3 2 2 2 4 4 5 4 4 4 5 6 6
0 0 0 0 0 0 1 1 1 1 1 1 0 0 0 1 2 1 1 1 1 2 2 3 3 3 3 3 3 2 2 2 1 2 4 4 2 2 3 5 5 6 7
0 0 0 0 1 1 6 5 2 1 1 1 1 1 0 1 3 5 5 4 2 2 3 3 3 4 3 3 3 3 2 2 3 1 -0 0 1 2 2 4 7 7 7
0 0 1 0 1 0 7 6 5 0 1 1 1 1 1 0 1 1 6 6 6 6 4 2 3 3 3 3 3 2 1 1 2 0 0 2 1 3 5 6 8 8 8
1 1 1 1 1 0 7 7 6 0 0 0 0 0 0 1 1 1 1 2 3 3 2 1 2 2 1 0 -0 -0 0 0 0 -0 -1 2 1 3 3 6 8 8 9
1 1 1 1 1 1 9 8 4 0 1 1 0 0 0 0 8 7 1 3 4 6 8 8 7 6 7 6 2 0 1 2 2 1 -1 1 1 2 3 5 7 9 9
1 1 1 1 5 3 10 9 3 1 2 1 1 0 7 3 9 7 1 1 3 4 3 2 2 5 3 3 4 -1 -0 1 2 2 -1 1 1 2 3 2 3 5 6

GFSMA_con_lsi_027.txt.gz
Lid_Strength_Index
-1 -1 -1 -1 -0 -1 -1 -1 -0 -0 -0 -0 -1 -1 -0 -1 -1 -0 -1 -1 -1 -1 -1 -1 -1 -1 -1 -1 -1 -1 -1 -1 -1 -1 -1 -1 -1 -1 -1 -1 -1 -1 -1
-1 -1 -0 -0 -0 -1 -1 -1 -0 -0 -0 -0 -0 -0 -1 -1 -1 -1 -1 -1 -2 -1 -1 -1 -1 -1 -1 -1 -1 -1 -1 -1 -1 -1 -1 -1 -1 -1 -1 -1 -1 -1 -0
-1 -1 -0 -0 -0 -2 -1 -1 -1 -0 0 -0 0 -0 -0 -1 -0 -1 -1 -1 -1 -2 -2 -1 -1 -1 -1 -1 -1 -1 -1 -1 -1 -1 -1 -2 -1 -1 -1 -1 -1 -0 0
-1 -1 -0 -0 -1 -1 -1 -0 0 0 1 0 1 -0 -0 -1 -0 -1 -1 -1 -1 -1 -1 -2 -2 -1 -1 -1 -1 -1 -1 -1 -1 -1 -1 -1 -1 -1 -1 -1 -0 0 1
-1 -0 -0 -1 -1 -1 -0 0 0 0 1 1 0 -0 -0 -0 -0 -0 -0 -1 -2 -2 -1 -1 -2 -1 -1 -1 -1 -1 -1 -1 -1 -1 -2 -1 -1 -1 -1 -1 0 0 1
-1 -1 -0 -1 -1 -0 1 1 1 0 0 0 1 1 0 0 -0 -0 -1 -1 -1 -1 -2 -1 -1 -1 -1 -1 -1 -1 -2 -1 -1 -1 -2 -1 -1 -1 -1 -0 -0 0 1
-1 -1 -0 -0 -0 0 1 0 1 1 1 0 1 1 1 0 0 -0 -0 -0 -1 -1 -2 -1 -1 -2 -1 -1 -1 -1 -2 -2 -2 -2 -1 -1 -1 -1 -1 -0 0 0 1
-1 -0 -0 -0 -0 1 0 0 0 1 1 0 3 2 5 3 1 0 0 -0 -0 -0 -1 -1 -1 -1 -1 -0 1 -1 -1 -2 -2 -1 -1 -1 -1 -1 -1 -0 1 1 1
-1 -0 -0 -0 -0 -0 1 0 0 1 2 1 1 2 5 5 3 1 1 0 -0 0 -0 -1 -1 -1 -1 -1 1 2 -1 -1 -2 -2 -1 -1 -1 -1 -0 0 1 1 1
-0 -0 -0 -0 -0 -0 -1 0 -0 0 1 2 1 1 1 2 5 5 1 1 0 0 -0 -0 -0 -1 -1 -1 -1 0 -0 -1 -1 -2 -2 -1 -1 0 1 2 1 1 1
-0 -0 -0 -0 0 -1 -0 -0 0 0 0 1 2 1 1 2 2 3 5 3 1 0 -0 -0 -0 -1 -1 -1 -1 -1 -0 -0 -0 -1 -1 -1 0 1 1 0 0 1 0
-0 -0 -0 -0 -1 -0 -0 -0 0 -0 0 0 1 1 2 3 3 3 4 4 4 2 0 -0 -0 -0 -1 -1 -1 -1 -0 -0 1 1 1 0 1 0 -0 0 0 -0 -0
1 0 -0 -0 -0 -0 -0 -0 -0 -0 0 1 0 1 1 1 1 2 3 3 4 3 2 1 0 -0 -0 -0 -0 -0 0 2 2 2 2 1 0 -0 -0 -0 -0 -0 -0
0 -1 -0 -1 -0 -0 -0 -1 -0 -0 -0 0 0 0 0 1 0 1 2 3 5 4 3 3 1 1 0 0 -0 0 1 2 3 3 3 2 1 1 0 -0 -1 -0 -1
0 -0 -0 -0 -0 -0 -0 -1 -0 -0 0 0 0 0 1 0 0 -1 1 1 4 6 5 3 3 0 1 1 0 1 1 2 2 3 3 3 2 1 1 1 0 0 0
-0 -0 -0 -0 -0 -0 -0 -0 0 -0 1 1 0 0 0 0 1 -0 1 1 1 3 5 2 2 1 1 1 1 1 1 2 3 3 3 3 3 2 2 2 1 1 1
-0 0 0 0 0 0 -0 0 0 1 1 1 1 1 1 1 1 1 1 1 2 2 4 3 1 1 1 2 2 1 1 2 2 3 3 3 3 3 3 2 2 2 2
-0 -0 0 0 0 0 0 0 1 1 1 1 1 1 1 1 1 1 1 1 2 1 3 4 3 3 2 2 2 2 2 1 2 3 4 4 4 3 4 4 3 2 2
-0 -0 0 0 0 0 1 1 1 1 1 1 1 1 1 1 1 1 1 2 1 1 2 3 3 2 2 2 3 3 3 3 2 3 4 4 5 5 6 4 4 6 5
0 0 0 0 0 1 1 1 1 1 1 1 1 0 1 1 2 1 2 2 1 2 2 3 3 3 3 3 3 4 5 3 3 2 4 4 5 6 6 5 5 6 7
0 0 0 0 0 1 1 1 1 1 1 1 1 1 0 1 2 2 1 1 2 2 3 3 4 3 4 4 4 5 4 3 3 4 5 5 5 4 3 5 6 7 7
1 0 1 1 1 1 6 5 2 1 0 1 1 1 0 2 3 6 5 4 2 2 3 3 4 4 4 3 3 4 4 4 4 3 3 4 3 2 3 6 7 7 7
0 1 1 1 1 0 6 6 6 1 0 1 1 1 1 1 1 1 5 6 6 6 4 2 3 3 3 3 2 2 2 2 2 1 2 2 2 4 5 7 8 8 8
1 1 1 1 1 1 6 7 6 -0 1 0 0 0 1 1 1 1 1 2 2 2 2 1 2 2 2 3 1 1 1 1 0 -0 -0 3 2 4 4 7 8 8 9
1 1 1 1 1 1 8 8 5 0 1 1 1 0 0 1 8 7 2 4 4 4 6 7 7 8 8 7 3 0 1 2 3 2 -0 1 1 3 4 6 8 9 9
1 1 1 1 4 1 9 9 5 1 2 2 0 0 6 4 8 7 2 3 4 3 3 2 3 5 5 4 6 -1 0 2 2 3 -0 1 1 2 4 4 6 8 8

GFSMA_con_lsi_030.txt.gz
Lid_Strength_Index
0 0 0 0 -0 -1 -0 0 0 0 0 -0 -0 -0 0 0 -0 -0 -0 -2 -2 -2 -2 -1 -1 -1 -1 -1 -1 -1 -1 -1 -1 -1 -1 -2 -1 -1 -1 -1 -1 -1 -1
0 0 0 0 0 -0 -0 -0 0 0 0 0 0 0 0 -0 0 -0 -0 -1 -2 -2 -2 -2 -1 -1 -1 -1 -1 -1 -1 -1 -1 -1 -1 -1 -1 -1 -1 -1 -1 -2 -1
-0 -0 0 0 0 -0 -0 -0 -0 -0 0 0 1 0 0 0 0 -0 -0 -1 -1 -2 -2 -2 -2 -1 -1 -1 -1 -1 -1 -1 -1 -1 -1 -1 -1 -1 -1 -1 -2 -1 -0
-1 -0 0 0 -0 -0 -0 0 1 1 1 1 1 1 0 0 0 0 -0 0 -0 -0 -1 -2 -2 -2 -1 -1 -1 -1 -1 -1 -1 -1 -1 -1 -1 -2 -1 -1 -1 -0 0
-0 0 0 0 -0 0 0 0 1 1 2 1 1 1 1 1 0 0 0 0 -0 -0 -0 -1 -1 -1 -1 -1 -1 -1 -1 -1 -1 -1 -1 -1 -2 -2 -1 -1 -0 0 1
-0 0 0 0 -0 0 1 1 1 1 1 1 1 1 1 1 0 1 1 0 0 -0 -0 -0 -0 -0 -1 -1 -1 -1 -1 -1 -1 -1 -1 -1 -2 -2 -2 -0 -0 0 1
-0 0 0 0 0 1 1 1 1 2 2 1 2 2 2 1 1 1 0 1 0 0 0 -0 -0 -0 -0 -1 -1 -1 -1 -2 -1 -2 -1 -1 -1 -2 -2 -1 -1 -0 0
-0 0 0 0 0 1 1 1 1 2 2 1 3 3 5 4 2 1 1 1 1 0 0 0 -0 0 0 -0 -0 -1 -1 -2 -2 -2 -1 -1 -1 -2 -2 -2 -1 -0 1
-0 -0 0 0 0 1 1 1 1 2 3 2 1 3 6 7 4 2 2 1 1 1 1 0 0 0 1 1 1 -0 -1 -1 -2 -2 -2 -1 -1 -2 -1 -1 -0 1 1
0 -0 -0 0 0 0 1 1 1 1 2 3 2 2 2 3 5 6 3 2 1 1 1 0 0 1 -0 1 1 1 0 -1 -1 -2 -2 -1 -1 -1 -1 0 1 1 1
-0 -0 -0 0 0 0 0 1 1 1 1 2 3 3 3 2 3 5 6 5 2 1 1 1 0 0 0 1 1 0 -0 -0 -1 -1 -1 -1 -2 -1 1 2 1 1 1
0 0 -0 0 0 0 1 1 1 1 1 1 2 2 3 4 4 4 5 5 4 3 1 1 1 0 -0 -0 -1 -1 0 0 1 0 -0 -0 -0 1 1 -0 0 0 1
1 1 0 0 0 0 0 0 1 1 1 2 2 2 2 2 2 3 4 4 5 3 2 1 0 0 -0 -0 -0 -0 0 1 2 1 2 1 0 0 0 -0 0 0 0
1 0 0 0 0 0 0 0 1 1 1 1 1 1 2 1 1 2 3 4 5 5 3 3 2 1 -0 -0 -1 0 1 2 2 2 2 2 1 1 0 0 0 -0 -0
1 0 0 0 0 0 0 0 1 1 1 1 1 1 1 1 1 1 2 2 4 6 6 3 3 1 1 1 0 1 1 1 2 2 3 3 2 2 2 2 1 1 1
1 1 0 0 0 0 0 0 1 1 1 1 1 1 1 1 1 1 1 2 2 4 6 3 2 2 1 1 1 2 1 2 2 3 3 3 3 3 2 2 2 1 2
0 1 1 1 1 1 0 1 1 1 2 2 1 1 2 1 1 1 1 1 2 2 4 3 2 1 1 2 1 1 0 1 2 3 3 4 4 3 3 3 2 3 3
1 1 1 1 1 1 1 1 1 1 2 2 2 2 2 1 2 1 2 2 2 2 3 4 3 2 2 1 1 2 2 2 2 3 4 4 4 4 4 5 5 5 4
1 1 1 1 1 1 1 1 1 1 1 1 1 2 2 2 2 2 2 2 2 2 2 3 3 2 2 2 3 3 3 3 3 4 5 5 5 5 6 6 6 4 6
1 1 1 1 1 1 1 1 1 1 1 1 1 1 1 2 2 2 2 2 2 2 3 3 4 4 3 3 3 4 5 4 4 4 5 5 6 6 7 7 6 6 7
1 1 1 1 1 1 1 1 1 1 1 2 1 1 1 2 3 2 1 2 2 3 3 3 4 4 4 5 5 5 5 5 5 6 7 7 7 8 6 5 6 6 7
1 1 1 1 1 1 7 6 3 1 1 1 2 1 1 3 5 5 4 4 3 3 3 4 4 5 5 5 5 5 5 5 7 5 6 7 7 6 8 9 7 7 7
1 1 1 1 1 1 7 8 7 1 1 1 1 1 1 1 2 2 6 6 6 6 4 3 4 4 5 5 4 4 4 5 6 5 6 7 7 9 8 8 8 8 8
1 1 1 1 1 1 7 10 9 1 1 1 1 1 1 1 2 2 2 2 2 2 2 2 2 3 3 3 3 4 3 3 4 4 4 6 6 7 8 9 8 8 9
1 2 1 1 1 1 9 10 5 1 1 1 1 1 1 2 8 7 2 3 3 3 6 7 7 8 8 7 3 2 2 4 3 3 2 4 5 6 8 9 10 8 9
1 1 2 1 3 1 8 10 6 1 2 2 1 2 6 4 9 8 2 3 4 3 3 3 4 6 6 6 7 2 1 3 3 3 1 2 4 5 7 8 10 10 11

GFSMA_con_lsi_033.txt.gz
Lid_Strength_Index
1 3 3 1 1 1 1 1 1 0 1 1 0 0 0 0 0 -0 0 -2 -2 -2 -2 -2 -2 -2 -1 -1 -1 -1 -1 -1 -1 -1 -1 -1 -1 -1 -1 -1 -0 -1 -1
2 2 1 1 2 1 2 1 1 1 2 1 1 0 0 0 -0 0 -0 -0 -2 -2 -2 -2 -2 -2 -2 -1 -1 -1 -1 -1 -1 -1 -1 -1 -1 -1 -1 -1 -1 -1 -1
2 1 1 2 2 1 1 1 1 1 1 1 1 1 1 0 0 0 0 -1 -0 -2 -2 -2 -2 -2 -2 -1 -1 -1 -1 -1 -1 -1 -1 -1 -1 -1 -1 -1 -1 -1 -1
1 1 1 2 1 1 2 2 1 2 2 2 2 2 1 0 1 0 0 -0 0 -0 -1 -2 -2 -2 -2 -1 -1 -1 -1 -1 -1 -1 -1 -1 -1 -1 -1 -1 -1 -1 -0
0 1 1 2 1 1 2 2 2 2 2 2 2 2 1 1 1 0 0 1 0 0 -0 -1 -2 -1 -1 -2 -1 -1 -1 -1 -1 -1 -1 -1 -1 -1 -1 -1 -1 -0 0
0 1 1 2 1 2 2 2 2 2 2 2 2 2 2 1 1 2 1 0 0 0 0 -0 -0 -0 -1 -1 -1 -1 -1 -1 -1 -1 -1 -1 -1 -1 -1 -1 -1 -0 1
0 1 1 2 2 2 2 2 2 2 3 2 3 3 3 2 2 2 2 1 1 1 0 0 -0 -0 -0 -1 -1 -1 -1 -1 -1 -1 -1 -1 -1 -2 -2 -2 -2 -1 0
1 1 1 2 2 2 2 2 2 3 3 2 4 4 6 4 2 2 2 1 2 1 0 -0 0 -0 0 0 0 -1 -1 -1 -2 -1 -1 -1 -1 -2 -2 -2 -1 -0 1
1 1 1 2 1 2 3 3 2 3 4 3 2 4 7 7 5 2 2 1 1 1 1 0 0 0 1 0 -0 -1 -1 -1 -2 -2 -2 -1 -2 -1 -2 -2 -1 1 2
0 1 1 1 2 2 2 2 1 2 2 3 3 2 3 3 6 7 3 3 2 2 2 2 1 1 2 1 -0 -1 -0 -1 -1 -2 -2 -2 -2 -2 -1 -1 -0 2 1
1 0 1 1 2 2 2 2 2 2 3 3 3 4 3 3 3 5 7 5 3 3 2 2 2 2 1 2 2 1 1 -0 -0 -1 -1 -1 -1 -2 -1 -1 0 0 1
2 1 1 1 2 2 2 2 2 2 2 2 2 2 3 4 4 4 5 5 5 4 2 2 1 2 2 1 1 0 1 1 1 0 -0 -1 -1 -1 0 0 0 0 0
3 3 2 2 2 2 2 2 2 2 2 2 2 3 3 3 2 3 4 5 5 3 2 1 1 1 0 -0 -0 -0 -0 0 1 1 1 1 1 0 -0 -0 0 0 0
2 2 2 1 1 1 1 1 1 2 2 2 2 2 2 2 1 2 3 4 5 4 3 3 2 0 0 1 -0 -1 0 1 2 3 3 2 1 0 0 0 0 0 0
1 1 1 2 2 2 1 1 2 2 2 2 2 2 2 1 2 2 3 2 4 6 6 3 3 1 0 0 0 1 1 2 2 2 2 3 2 2 2 2 1 1 1
2 2 2 2 2 2 1 1 2 1 2 1 2 2 2 2 2 1 2 3 2 4 6 3 2 1 1 1 1 1 2 2 2 3 3 3 3 3 3 3 2 2 2
2 2 1 1 2 2 1 2 2 1 1 2 1 2 2 2 2 2 1 2 3 3 4 3 2 2 2 2 1 1 0 1 2 2 2 3 4 4 4 3 3 3 3
2 1 1 1 1 1 2 2 2 2 2 2 2 2 2 1 2 2 2 2 3 2 3 4 2 3 3 2 1 2 2 1 2 3 4 4 4 4 5 5 5 5 5
1 1 1 1 1 1 2 2 2 2 1 1 1 2 2 2 2 2 2 2 2 2 2 3 3 2 2 1 2 2 2 3 3 3 5 5 5 5 6 6 6 6 6
1 1 1 1 1 1 1 2 2 2 2 1 1 1 1 2 2 2 2 2 2 2 2 3 3 3 2 2 3 4 4 4 5 5 6 6 6 6 6 7 7 7 8
1 1 1 2 1 1 2 2 1 2 2 2 1 1 2 2 2 2 1 2 2 3 3 3 4 4 4 4 5 4 6 6 6 7 8 8 9 8 8 7 7 6 7
1 1 2 2 3 2 7 6 4 2 1 2 2 2 2 3 4 5 4 4 3 3 4 4 5 5 5 5 4 5 6 7 8 6 8 8 8 10 10 9 7 7 7
2 2 2 2 3 4 9 10 8 1 1 2 2 2 2 2 3 4 6 6 6 6 5 3 4 5 6 5 5 5 6 6 7 7 8 10 9 10 9 8 8 7 8
3 2 3 3 3 5 10 11 9 2 2 1 2 2 2 2 3 2 3 3 3 3 3 3 3 4 4 4 4 4 5 6 6 6 6 8 8 9 9 9 8 8 9
2 2 2 3 3 5 10 11 5 2 2 2 1 2 1 2 8 7 2 3 3 4 7 8 8 8 8 8 5 3 5 6 6 5 4 6 7 9 10 11 10 8 9
2 2 2 2 4 4 9 11 6 2 3 2 2 3 7 5 9 8 2 3 4 4 3 4 5 7 6 7 6 3 3 3 3 5 3 6 7 8 10 10 11 11 13

GFSMA_con_lsi_036.txt.gz
Lid_Strength_Index
1 0 0 3 2 2 2 2 1 1 1 1 1 1 1 -0 -0 1 1 -1 -2 -2 -2 -2 -1 -1 -1 -1 -1 -1 -1 -1 -1 -1 -1 -1 -1 -1 -1 -1 -1 -2 -1
0 0 3 4 2 2 2 1 1 2 2 1 1 1 1 1 1 -0 0 0 -2 -2 -2 -2 -2 -2 -2 -2 -1 -1 -1 -1 -1 -1 -1 -1 -1 -1 -1 -1 -1 -2 -2
0 1 3 3 2 2 2 1 1 2 2 2 2 1 1 1 1 -0 0 0 -0 -2 -2 -2 -2 -2 -2 -1 -1 -1 -1 -1 -1 -1 -1 -1 -1 -1 -1 -1 -1 -1 -1
0 2 3 3 2 2 2 3 3 2 2 2 2 2 2 1 1 1 0 0 0 -0 -1 -2 -2 -2 -2 -2 -1 -1 -1 -1 -1 -1 -1 -1 -1 -1 -1 -1 -1 -1 -1
2 3 3 2 2 2 3 2 3 3 3 3 2 2 2 2 1 1 0 0 0 0 1 -1 -2 -2 -1 -2 -2 -1 -1 -1 -1 -1 -1 -1 -1 -1 -1 -1 -1 -1 -1
2 3 1 2 2 3 3 3 3 3 3 3 2 2 2 1 1 1 1 0 1 0 0 0 0 -0 -1 -1 -1 -1 -1 -1 -1 -1 -1 -1 -1 -1 -1 -1 -1 -0 -0
1 1 2 2 2 2 3 3 2 2 2 3 3 3 2 1 2 2 2 2 1 1 2 1 0 0 -0 -1 -1 -1 -1 -1 -1 -1 -1 -1 -1 -1 -1 -1 -1 -0 1
1 1 2 2 3 3 3 3 3 4 3 3 4 4 6 4 2 2 2 2 2 2 1 0 0 0 0 1 0 -1 -1 -1 -1 -1 -1 -1 -1 -1 -2 -2 -1 0 1
1 2 2 2 3 2 3 3 3 4 4 4 3 5 7 7 4 3 2 2 2 2 2 0 0 0 0 1 -0 -1 -1 -1 -1 -1 -1 -1 -1 -1 -2 -2 -1 -0 0
2 1 2 2 2 2 3 3 2 3 3 4 3 2 3 4 6 6 4 3 2 2 2 2 1 1 1 0 -0 -1 -0 -0 -1 -1 -1 -2 -2 -2 -2 -2 -1 0 0
2 1 1 2 2 3 3 3 3 3 3 4 4 4 4 4 3 5 6 5 3 3 2 2 2 0 -0 1 1 0 0 0 -0 -1 -1 -1 -2 -2 -2 -1 1 -0 0
3 2 1 2 2 3 2 2 2 3 3 3 3 3 4 5 5 5 6 6 5 4 3 2 1 1 2 2 -0 0 1 1 2 1 -0 -1 -1 -1 -1 0 -0 -1 0
3 3 3 3 2 2 2 2 3 3 3 3 3 3 3 3 3 4 4 5 5 4 3 1 1 2 2 1 1 1 1 2 2 2 1 0 0 -0 -0 -1 -0 -0 -0
3 3 3 2 2 2 2 2 2 2 2 2 3 3 3 3 2 2 4 4 6 5 3 3 1 1 0 1 0 1 2 1 2 2 2 2 1 1 1 1 0 -0 -0
3 2 2 2 2 2 2 2 2 2 2 3 2 3 3 2 1 2 3 3 4 6 6 3 3 0 -0 -0 -0 1 1 1 2 3 2 2 2 2 2 1 1 1 1
2 2 2 2 2 2 2 2 2 1 2 2 2 3 2 2 2 2 3 3 2 4 6 3 2 1 1 0 0 1 1 2 2 2 3 3 3 3 3 3 3 2 2
2 2 2 2 2 2 2 3 3 2 3 2 1 2 2 2 2 3 3 3 3 2 4 3 2 1 1 1 2 1 2 2 2 3 3 3 4 4 4 4 4 3 3
2 2 2 2 1 2 2 2 2 1 2 2 2 2 2 1 2 2 3 3 4 3 3 4 3 2 2 2 2 2 2 2 2 3 4 4 4 5 5 5 5 5 5
2 2 2 2 1 2 2 2 2 2 1 1 2 2 2 2 2 2 2 2 2 2 2 3 3 3 2 2 2 1 3 3 2 3 5 5 5 5 6 6 6 6 6
2 1 2 1 2 2 2 2 2 2 1 1 1 1 1 2 2 2 2 2 2 2 2 3 3 3 2 2 2 4 4 4 5 5 6 6 6 6 6 6 6 7 8
1 1 2 2 2 2 2 2 2 2 2 2 2 1 1 2 2 2 1 2 2 2 2 3 4 3 4 4 4 4 6 6 7 7 8 8 9 8 8 7 6 6 6
1 2 2 2 3 3 8 8 5 2 2 2 3 2 2 3 4 4 4 4 3 2 3 3 4 4 4 4 5 5 6 7 8 7 9 10 9 10 11 9 6 7 7
2 3 3 3 4 4 10 10 8 2 3 3 3 2 2 3 3 3 7 6 6 6 4 3 4 4 5 4 4 5 5 6 8 8 8 11 11 12 9 8 7 7 8
3 3 4 4 4 5 11 10 7 2 2 2 3 2 2 3 3 3 3 3 3 3 3 3 3 3 3 3 4 4 6 7 8 8 8 11 10 10 10 10 8 8 8
4 4 4 4 5 6 11 10 5 2 2 2 2 1 2 3 8 8 3 4 4 5 8 9 9 9 9 8 6 5 6 7 9 8 6 8 9 10 11 11 11 9 9
2 2 4 3 5 5 11 10 5 2 2 2 3 3 7 5 10 8 3 4 4 5 5 5 5 7 6 6 7 5 5 6 6 6 5 8 9 10 11 11 12 12 12

GFSMA_con_lsi_039.txt.gz
Lid_Strength_Index
1 0 1 0 0 1 1 2 2 2 1 1 1 1 1 1 0 0 1 -1 -1 -2 -2 -2 -2 -2 -2 -2 -1 -1 -1 -1 -1 -1 -1 -1 -1 -1 -1 -1 -1 -1 -1
1 1 0 0 0 2 2 2 2 2 2 2 2 2 1 1 0 1 1 1 -1 -2 -2 -2 -2 -2 -2 -2 -2 -1 -1 -1 -1 -1 -1 -1 -1 -1 -1 -1 -1 -1 -1
1 1 1 1 1 3 3 2 2 2 2 3 2 2 2 1 1 1 0 -0 0 -2 -2 -2 -2 -2 -2 -1 -2 -1 -1 -1 -1 -1 -1 -1 -1 -1 -1 -1 -1 -1 -1
1 2 2 1 3 3 2 3 2 2 2 3 3 3 2 2 1 1 1 0 0 -0 -1 -2 -2 -2 -2 -1 -1 -1 -1 -1 -1 -1 -1 -1 -1 -1 -1 -1 -1 -1 -1
1 2 2 2 3 3 3 3 3 3 4 3 2 3 2 2 2 1 1 1 0 0 1 -1 -2 -2 -2 -2 -2 -2 -1 -1 -1 -1 -1 -1 -1 -1 -1 -1 -1 -1 -1
2 2 2 3 3 3 3 4 4 4 3 2 2 2 2 2 2 2 1 1 1 0 0 -0 0 -0 -2 -1 -2 -1 -1 -1 -1 -1 -1 -1 -1 -1 -1 -1 -1 -1 1
2 3 3 4 3 3 3 3 3 3 2 2 3 3 3 2 2 2 2 2 2 1 1 0 1 0 -0 -1 -1 -1 -2 -1 -1 -1 -1 -1 -1 -1 -1 -1 -1 -0 0
2 2 3 2 3 3 3 3 2 3 4 3 5 5 6 4 2 1 2 2 2 1 1 1 1 0 0 0 0 -1 -1 -1 -1 -1 -1 -1 -1 -1 -1 -1 0 -0 1
2 1 2 2 3 3 3 3 2 4 5 4 4 5 6 7 5 2 2 2 2 3 2 2 1 0 1 0 -0 -0 -1 -1 -1 -1 -1 -1 -1 -1 -1 -1 -1 0 -0
2 1 2 3 3 3 3 3 3 4 4 5 4 3 4 5 6 6 3 3 2 2 3 2 1 1 1 1 -0 -1 -0 -1 -1 -1 -1 -1 -1 -1 -2 -1 -0 -0 -1
2 2 2 2 3 3 3 3 3 3 4 4 4 4 4 4 4 5 6 5 3 3 3 2 2 1 1 0 1 0 0 0 -0 -0 -1 -1 -1 -2 -1 -1 -0 -1 -1
3 2 2 3 3 3 3 3 3 3 4 4 4 4 4 5 5 5 6 5 4 3 2 2 2 2 1 0 -0 -0 1 1 1 1 0 -0 -1 -2 -2 -0 -0 -1 -1
4 3 3 3 3 3 3 2 3 3 3 4 3 3 4 4 4 4 5 6 5 3 2 1 2 1 1 1 0 -0 0 2 2 2 1 0 -0 -1 -0 -0 -1 -0 -0
3 3 3 3 2 2 2 2 3 3 3 3 3 3 3 3 4 4 3 5 6 5 3 3 1 1 1 1 0 1 2 3 3 3 2 2 1 1 1 1 0 0 0
3 3 3 3 2 2 2 3 3 2 2 3 3 3 3 3 2 2 3 3 4 7 6 3 3 1 0 0 0 2 1 2 2 3 3 3 3 2 2 2 1 1 1
3 2 2 2 2 2 2 3 3 2 2 2 3 3 3 3 2 2 2 3 3 4 6 3 2 1 0 0 0 2 2 2 3 3 2 2 3 3 3 2 2 2 2
2 2 2 2 2 3 3 3 3 2 3 3 2 2 3 3 3 2 3 3 3 3 4 3 1 1 1 1 1 2 2 2 2 2 2 3 4 4 4 4 3 3 3
3 2 2 2 2 2 3 3 3 2 2 2 2 2 3 2 3 2 3 3 3 3 3 4 2 2 3 3 3 3 2 2 3 2 4 4 4 5 5 5 5 5 5
3 2 2 2 2 2 3 2 2 2 2 1 2 2 2 2 2 2 3 3 3 2 2 3 3 2 3 3 3 3 3 3 3 3 4 4 5 5 5 6 6 6 6
2 2 2 2 2 2 2 2 2 2 1 1 1 1 1 2 2 2 2 2 2 2 2 3 3 3 3 2 2 3 5 4 6 5 5 6 6 6 6 6 6 6 7
2 1 2 3 3 3 3 3 2 2 2 2 1 1 1 2 2 2 1 2 2 2 3 3 3 3 3 4 4 4 6 6 7 6 7 8 8 8 7 6 5 6 6
1 2 3 3 3 3 9 8 5 2 2 2 3 2 2 3 4 5 4 4 2 2 3 3 3 4 4 4 4 5 6 6 8 6 8 10 9 11 10 9 7 6 6
2 4 4 3 4 5 10 10 7 3 3 3 2 2 2 2 3 3 6 5 5 5 3 2 3 4 4 4 4 5 6 6 8 8 9 12 11 12 10 8 7 7 7
4 4 4 4 4 5 11 10 7 3 3 3 2 2 2 3 3 3 3 3 3 3 2 2 2 3 3 3 4 4 6 8 8 9 9 11 12 11 10 10 8 8 8
4 4 4 5 4 5 11 10 5 3 2 2 2 2 2 3 9 8 3 5 5 5 7 7 7 8 9 8 6 6 7 7 9 9 8 10 10 11 11 11 11 9 10
4 4 5 4 6 5 11 10 5 2 2 3 3 4 7 5 10 9 4 5 6 5 5 5 6 7 7 8 7 5 6 7 8 9 6 9 10 10 11 11 12 11 12

GFSMA_con_lsi_042.txt.gz
Lid_Strength_Index
0 0 0 -0 -0 -0 -0 -0 0 1 1 1 -0 0 0 0 -0 -0 -1 -1 -1 -1 -1 -2 -2 -2 -2 -2 -2 -2 -1 -1 -1 -1 -1 -1 -2 -2 -2 -2 -2 -2 -1
0 0 0 0 0 -0 -0 0 1 1 1 1 0 0 0 -0 -0 -1 -1 -1 -1 -2 -2 -2 -2 -2 -2 -2 -2 -2 -2 -1 -1 -1 -2 -1 -2 -2 -2 -1 -2 -2 -1
0 1 1 1 0 -0 -0 1 2 2 2 1 1 1 1 0 0 -0 -1 -1 -1 -1 -1 -2 -2 -2 -2 -2 -2 -2 -2 -1 -1 -1 -1 -1 -1 -1 -2 -2 -1 -1 -1
0 1 1 1 1 1 -0 2 1 1 1 1 1 1 1 1 1 0 -0 -1 -1 -1 -1 -2 -2 -2 -2 -1 -1 -2 -2 -1 -1 -1 -1 -1 -1 -1 -1 -1 -1 -1 -1
1 2 1 2 1 1 2 2 2 1 2 2 1 1 1 2 1 0 -0 -0 -1 -1 -1 -1 -2 -2 -2 -2 -2 -1 -1 -1 -1 -1 -1 -1 -1 -1 -1 -2 -1 -1 -1
1 2 2 2 2 2 3 2 2 2 2 2 2 1 1 1 0 1 0 -0 -1 -1 -1 -1 -1 -1 -2 -2 -2 -2 -1 -1 -1 -1 -1 -1 -1 -1 -1 -1 -1 -1 -0
1 2 2 2 2 3 2 2 3 3 2 1 2 2 2 1 1 0 0 0 -0 -0 -1 -1 -1 -1 -1 -2 -1 -1 -1 -1 -1 -1 -1 -1 -1 -1 -2 -1 -1 0 -0
2 2 2 3 3 3 2 2 2 2 2 1 3 3 5 3 2 1 0 0 0 0 -0 -1 -0 -1 -1 -1 -1 -1 -1 -1 -1 -1 -1 -1 -1 -1 -1 -0 0 1 1
2 1 2 3 3 2 2 2 2 3 3 3 2 3 6 6 4 2 1 1 0 0 -0 -1 -0 -1 -1 -1 -1 -1 -1 -1 -1 -1 -1 -1 -1 -1 -1 0 1 1 0
2 3 3 2 1 2 2 2 2 2 3 3 3 2 2 2 5 6 2 2 1 1 1 0 -0 -1 -1 -1 -1 -1 -0 -1 -1 -1 -1 -1 -1 -1 -1 -0 -1 -0 -2
3 2 1 1 2 2 2 2 2 2 3 3 2 3 3 2 2 4 6 4 2 1 1 0 -0 -0 -1 -1 -1 -1 -0 0 0 0 -1 -1 -1 -1 -1 -0 -1 -1 -2
2 2 2 2 2 2 2 2 2 2 2 2 2 2 2 3 4 4 5 4 4 2 1 1 1 1 -0 -0 -1 -1 0 1 2 1 0 -0 -1 -1 -1 -1 -2 -1 -1
3 3 2 2 2 2 1 1 2 2 2 2 2 2 2 2 2 2 3 4 4 3 2 1 0 0 -0 -1 -1 -1 -0 2 3 2 2 1 -0 -0 -1 -1 -2 -1 -1
3 2 2 2 2 1 1 1 1 1 2 2 2 2 2 2 2 2 2 4 5 4 3 3 0 -0 -0 -0 -1 0 1 2 3 3 3 1 1 1 0 -0 -1 -0 0
2 2 2 2 2 1 1 1 1 1 1 1 1 1 2 2 1 1 1 2 4 6 5 3 3 -0 -0 -0 0 0 0 2 3 3 3 2 2 2 1 1 1 1 1
2 2 2 1 1 1 1 1 1 1 1 1 2 2 2 1 1 1 1 1 1 3 5 2 2 1 -0 0 1 1 1 2 3 4 4 4 3 3 3 2 2 2 2
2 1 1 1 1 2 1 2 2 1 1 2 1 1 1 1 1 2 1 1 2 2 4 3 1 1 1 1 2 2 2 2 3 4 3 4 4 4 4 3 3 3 2
1 1 1 1 1 1 1 2 2 1 2 2 2 2 2 1 2 2 2 2 2 1 3 4 2 2 3 2 2 3 2 2 3 3 3 4 4 4 4 5 5 5 4
2 1 1 1 1 1 1 1 1 1 1 2 2 2 2 1 2 2 2 2 1 1 2 3 3 3 3 3 4 3 3 2 2 3 4 4 4 4 5 6 6 6 6
2 2 1 1 1 1 1 1 1 1 1 1 1 1 1 1 2 2 2 2 1 2 2 3 3 3 3 3 3 4 5 4 5 5 5 5 5 5 6 6 6 6 7
1 1 2 2 2 2 3 2 1 2 2 2 1 1 1 1 2 2 1 1 2 2 2 3 3 3 4 4 4 4 6 6 6 6 7 7 7 6 6 5 5 6 7
1 1 2 2 2 4 9 8 4 1 1 2 2 2 2 3 3 4 4 3 2 2 3 3 3 4 4 4 4 5 6 6 8 6 8 10 8 8 7 6 7 6 6
2 3 3 2 3 3 10 10 7 2 2 2 2 2 2 2 2 2 5 5 5 5 3 1 3 3 4 4 4 4 5 6 7 8 8 9 9 9 9 8 7 7 7
3 3 3 3 3 5 10 9 8 2 2 1 1 2 2 2 3 2 2 2 2 1 1 1 1 2 2 3 3 4 7 7 7 7 6 9 10 9 8 6 7 8 8
3 3 3 3 3 4 10 10 5 1 2 2 2 2 2 3 9 8 3 4 3 4 6 6 6 8 8 8 6 5 6 6 8 7 7 8 9 8 8 8 8 9 9
3 3 4 3 6 3 10 9 4 2 2 3 3 4 7 6 10 9 4 4 5 4 4 5 6 7 6 7 7 4 5 7 6 7 6 7 7 7 8 8 8 8 8

GFSMA_con_lsi_045.txt.gz
Lid_Strength_Index
-0 -0 -0 -1 -1 -1 -1 -0 -1 -0 -1 -1 -1 -1 -1 -1 -1 -1 -1 -1 -1 -1 -1 -1 -1 -2 -2 -2 -2 -2 -2 -1 -1 -1 -1 -1 -1 -1 -2 -1 -2 -2 -1
-0 -0 -0 -0 -0 -1 -1 -1 -0 -0 -0 -1 -0 -1 -1 -1 -1 -1 -1 -2 -1 -1 -1 -1 -1 -2 -2 -2 -2 -2 -2 -1 -1 -1 -1 -1 -1 -2 -2 -2 -2 -1 -1
-1 -0 -0 -0 -0 -1 -1 -1 -1 -1 -0 -1 -0 -0 -1 -1 -1 -1 -1 -1 -2 -1 -1 -1 -2 -2 -2 -2 -2 -2 -2 -1 -1 -1 -1 -2 -2 -2 -2 -2 -2 -1 -1
-1 -0 -0 -0 -1 -1 -0 -0 -0 0 0 -0 0 0 -0 -1 -1 -1 -1 -1 -1 -1 -1 -1 -2 -2 -2 -2 -2 -2 -2 -2 -1 -1 -1 -2 -1 -2 -2 -2 -1 -1 -1
-1 -0 -0 -0 -1 -0 -0 -0 0 0 0 0 0 0 -0 -0 -0 -1 -0 -1 -2 -1 -1 -2 -2 -2 -2 -2 -1 -1 -2 -2 -1 -1 -1 -1 -2 -2 -2 -1 -1 -1 -1
-1 -0 -0 -0 -1 -0 0 0 0 0 0 1 1 1 0 -0 -0 -0 -0 -1 -1 -1 -1 -2 -2 -2 -2 -2 -2 -2 -1 -1 -1 -1 -1 -1 -1 -2 -1 -1 -1 -1 -0
-0 -0 -0 -0 -0 0 1 -0 0 1 1 0 1 2 1 0 0 0 -0 -0 -1 -1 -1 -2 -2 -1 -1 -2 -2 -2 -1 -1 -1 -1 -1 -1 -1 -2 -2 -1 -1 -1 0
-0 -0 -0 1 0 0 0 0 0 1 1 0 3 3 4 3 1 0 0 0 0 -0 -1 -1 -1 -1 -1 -2 -2 -1 -1 -1 -1 -1 -1 -0 -1 -2 -1 -1 -1 -0 -1
-0 -0 0 1 -0 0 1 0 0 1 2 1 1 2 4 5 2 1 1 0 -0 0 -1 -1 -1 -1 -2 -2 -1 -2 -1 -1 -1 -1 -1 -1 -1 -1 -1 -1 -0 0 -0
-0 0 0 -0 -0 -0 0 0 0 1 1 3 2 1 0 1 4 5 1 1 0 1 -0 -1 -1 -1 -1 -1 -1 -2 -1 -1 -1 -1 -1 -1 -1 -1 -1 -0 1 0 -1
-0 0 -0 -0 -0 0 0 -0 0 1 1 1 2 2 2 1 1 2 4 3 2 0 -1 0 -1 -1 -1 -1 -2 -1 -1 -0 -0 -0 -1 -1 -1 -1 -1 -0 -0 -1 -2
0 -0 -0 -0 -0 -0 0 0 -0 0 1 1 1 1 2 3 3 3 3 3 4 2 0 0 -0 -1 -1 -2 -1 -0 -0 1 1 1 0 -0 -1 -2 -1 -1 -1 -2 -2
1 0 -0 -0 0 -0 -0 -0 -0 0 0 1 1 1 1 1 1 1 2 3 4 3 2 0 -0 -1 -1 -2 -2 -1 -1 1 2 2 1 1 -0 -0 -0 -1 -2 -2 -1
1 -0 -0 -0 -0 -0 -0 -0 0 0 0 1 1 1 1 1 1 1 2 3 5 4 2 2 -0 -1 -1 -1 -1 -1 -1 2 3 3 3 2 1 1 -0 -1 -1 -1 -1
0 0 -0 0 -0 -0 -0 -0 0 0 0 0 1 0 1 1 0 0 1 1 2 6 5 2 2 -0 -1 -1 -0 -1 -1 2 2 3 3 2 2 1 1 1 1 0 1
0 0 0 0 -0 -0 -0 -0 0 0 0 1 1 1 1 0 0 0 1 1 0 3 5 2 2 0 -0 -1 -1 -0 -1 2 3 3 3 3 2 2 2 2 2 2 2
0 0 0 0 0 0 -0 0 0 0 1 1 1 1 1 0 1 1 1 1 1 1 4 2 1 0 0 1 1 1 2 2 3 4 3 3 3 3 3 3 3 3 2
0 0 0 0 0 0 0 0 1 1 1 2 1 1 1 1 1 1 1 1 1 1 2 4 2 2 2 2 2 2 3 2 3 3 4 4 4 5 5 5 5 4 4
0 0 0 1 1 0 0 0 0 1 1 1 1 1 1 1 1 1 1 1 1 1 1 3 3 2 2 2 2 3 3 3 3 3 4 4 4 4 4 6 6 6 6
0 0 0 0 0 0 0 0 0 1 1 1 1 1 1 1 1 1 1 1 1 1 2 2 3 3 3 3 3 4 4 4 6 4 4 4 4 5 5 6 6 6 7
0 0 0 0 0 0 0 0 0 1 1 1 1 1 1 1 2 1 1 1 1 2 2 3 3 4 4 4 5 4 5 6 6 5 6 6 4 4 5 5 4 5 7
0 0 1 1 1 1 9 8 3 1 1 1 2 1 1 2 2 4 3 4 1 1 2 3 3 4 3 4 4 5 5 6 7 6 7 8 6 6 5 5 7 8 6
1 1 1 1 1 0 9 9 7 0 1 1 1 2 2 2 2 1 5 5 5 5 2 1 2 3 3 3 3 4 4 4 6 7 6 8 5 6 4 6 8 6 7
1 1 1 1 1 1 10 9 7 0 1 1 1 1 2 2 2 2 1 1 1 0 0 0 0 1 1 1 1 1 3 6 6 6 3 5 4 5 5 4 7 7 8
1 1 1 1 1 2 10 10 4 1 1 1 1 1 1 3 8 7 1 2 1 2 6 7 6 8 8 7 5 4 5 5 7 5 3 4 4 4 3 3 5 8 8
1 1 1 1 5 2 10 9 3 1 2 2 2 3 7 5 10 8 2 1 3 3 3 4 4 6 6 6 6 3 4 6 5 5 3 4 4 3 4 4 4 5 5

GFSMA_con_lsi_048.txt.gz
Lid_Strength_Index
-0 -1 -1 -1 -1 -1 -1 -1 -1 -1 -1 -1 -1 -1 -1 -1 -1 -1 -1 -1 -1 -1 -1 -1 -1 -1 -1 -1 -2 -2 -2 -1 -1 -1 -1 -1 -1 -1 -1 -1 -1 -1 -1
-1 -0 -0 -1 -1 -1 -1 -1 -1 -1 -0 -1 -1 -1 -1 -1 -1 -2 -1 -1 -1 -1 -1 -1 -1 -1 -1 -2 -2 -2 -2 -2 -1 -1 -1 -1 -1 -2 -1 -1 -1 -1 -1
-1 -1 -0 -0 -1 -1 -2 -1 -1 -1 -0 -1 -1 -1 -1 -1 -1 -1 -1 -1 -1 -2 -1 -1 -1 -1 -2 -1 -2 -2 -2 -2 -1 -1 -1 -2 -1 -1 -2 -2 -1 -2 -1
-1 -1 -0 -0 -1 -1 -1 -0 -0 -0 -0 -0 0 -0 -1 -1 -1 -1 -1 -1 -1 -1 -1 -2 -1 -2 -2 -1 -1 -1 -2 -2 -1 -1 -1 -1 -2 -2 -2 -1 -2 -1 -1
-1 -1 -0 -1 -1 -0 -0 -0 -0 -0 0 0 0 -0 -0 -0 -1 -1 -1 -1 -2 -1 -1 -2 -2 -2 -2 -2 -2 -1 -1 -2 -1 -1 -1 -1 -2 -2 -2 -2 -2 -1 -1
-1 -0 -0 -1 -1 -0 -0 -0 -0 -0 0 0 1 1 -0 -0 -1 -1 -1 -1 -1 -1 -2 -2 -2 -2 -2 -2 -2 -2 -1 -2 -1 -1 -1 -1 -2 -2 -2 -2 -1 -1 0
-1 -0 -0 -0 -0 -0 -0 -1 -0 0 1 -0 1 1 1 0 -0 -0 -1 -1 -1 -1 -1 -1 -1 -2 -1 -2 -2 -2 -1 -2 -1 -1 -1 -1 -1 -2 -2 -1 -1 -0 1
-0 -0 -0 -0 -0 0 -0 -0 0 1 1 1 2 2 4 2 1 0 -1 -0 -1 -1 -1 -1 -2 -2 -2 -2 -2 -2 -1 -1 -1 -1 -1 -1 -1 -1 -1 -1 -1 0 0
-0 -0 -0 -0 -0 -0 1 0 0 0 2 1 0 2 5 5 3 1 1 -0 -0 -1 -0 -1 -1 -2 -2 -2 -2 -2 -2 -1 -1 -1 -1 -1 -1 -1 -1 -1 -0 0 -0
-0 -0 -0 -0 -0 -0 0 0 -0 -0 1 2 2 1 1 1 4 5 2 1 -0 0 -0 -1 -1 -1 -2 -1 -2 -2 -1 -1 -1 -1 -1 -1 -2 -1 -1 -1 -1 -1 0
-0 -0 -0 -0 -0 -0 -0 -0 0 0 1 1 2 2 2 1 1 3 5 3 1 0 -0 -1 -0 -1 -2 -2 -2 -2 -1 -1 -1 -1 -1 -1 -1 -1 -1 -1 -0 -0 -0
0 -0 -0 -0 -1 -1 -0 -0 -0 0 0 0 0 1 2 3 3 3 3 3 3 1 0 -0 -0 -1 -2 -2 -1 -1 -1 0 1 1 0 -0 -1 -1 -1 -1 -1 -2 -2
1 0 -0 -0 -0 -1 -1 -1 -0 -0 0 1 0 1 1 1 1 1 2 3 4 2 1 -0 -0 -0 -2 -2 -2 -1 -1 1 2 2 1 1 -0 -1 -1 -1 -2 -2 -2
1 -0 -0 -0 -0 -0 -0 -1 -0 0 -0 0 0 0 1 1 0 1 1 2 4 3 2 2 -0 -0 -1 -2 -2 -1 -1 2 3 3 2 2 1 1 -0 -1 -1 -1 -1
0 -0 -0 -0 -0 -0 -0 -1 0 0 -0 -0 -0 -0 1 0 0 0 -0 0 2 5 5 2 1 -1 -1 -1 -1 -2 -2 1 2 3 3 2 2 1 1 1 0 0 -0
-0 -0 -0 -0 -0 -0 -0 -0 -0 -0 0 0 0 0 0 0 -0 -0 0 0 1 2 5 1 1 -0 -1 -1 -1 -1 -1 1 3 3 3 3 3 2 2 2 2 1 1
-0 0 0 0 0 -0 -0 -0 -0 0 0 0 1 1 1 0 0 0 -0 -0 1 1 4 2 1 0 0 0 -0 -1 -1 1 3 3 3 3 4 3 3 3 2 2 2
-0 -0 -0 0 0 0 -0 0 0 0 1 1 1 1 1 0 1 0 1 2 1 -0 2 3 2 2 1 1 1 2 2 2 2 3 4 4 4 4 4 5 4 4 4
-0 -0 0 0 0 0 0 0 0 0 1 1 1 1 1 1 1 1 1 1 0 0 1 2 3 2 2 3 3 3 3 3 3 3 4 4 4 4 5 5 5 6 6
0 0 -0 0 0 0 0 0 0 1 1 1 1 1 1 1 1 1 1 1 1 1 1 2 3 3 3 3 3 5 5 4 4 3 3 4 4 4 5 5 5 5 6
0 -0 0 0 0 0 0 0 0 1 1 2 1 1 1 1 2 1 1 1 1 1 2 3 3 3 4 3 5 5 5 4 5 4 4 4 4 2 3 4 3 5 7
0 0 0 0 1 -0 8 8 4 0 1 1 2 1 0 1 2 4 3 3 1 1 2 3 3 4 4 4 4 5 5 5 7 5 5 5 4 4 3 1 7 7 7
0 0 0 0 1 0 8 8 7 0 1 1 1 1 1 1 1 0 5 5 5 5 2 1 2 3 4 3 3 4 3 4 5 6 5 7 5 6 5 5 8 8 6
0 0 0 0 0 1 9 9 7 0 1 1 1 1 1 1 1 1 0 1 0 -0 -0 0 1 1 2 1 1 1 2 3 5 5 4 7 4 4 3 3 8 6 7
1 1 0 1 1 1 10 9 6 0 1 1 1 1 1 1 7 7 1 1 1 1 6 7 6 7 7 7 4 2 5 5 6 5 4 4 4 4 3 2 2 7 8
1 1 1 1 3 1 10 9 3 1 1 1 2 2 6 4 10 8 1 1 2 2 2 2 4 5 4 6 6 1 2 4 5 5 2 3 3 3 3 0 1 4 4

GFSMA_con_lsi_051.txt.gz
Lid_Strength_Index
-0 -0 -1 -1 -1 -1 -1 -0 -1 -1 -0 -1 -1 -1 -1 -1 -1 -1 -1 -2 -1 -1 -1 -1 -1 -1 -1 -1 -2 -2 -2 -2 -1 -1 -1 -1 -2 -2 -1 -1 -1 -1 -1
-0 -0 -0 -0 -0 -1 -1 -1 -0 -0 -0 -1 -0 -0 -1 -1 -1 -1 -1 -1 -2 -1 -1 -1 -1 -1 -2 -2 -1 -2 -2 -2 -1 -1 -1 -2 -1 -1 -1 -1 -1 -1 -1
-1 -1 -0 -0 -0 -1 -1 -1 -1 -1 -0 -0 -0 -0 -1 -1 -0 -1 -1 -1 -1 -2 -2 -1 -1 -2 -1 -1 -1 -2 -2 -2 -1 -1 -1 -1 -1 -1 -2 -1 -1 -1 -1
-1 -1 -0 -0 -1 -1 -1 -0 -0 0 0 0 0 -0 -0 -0 -0 -0 -1 -1 -1 -1 -2 -2 -1 -2 -2 -1 -1 -2 -2 -2 -1 -1 -1 -1 -1 -1 -2 -2 -1 -1 -1
-1 -0 -0 -0 -1 -0 -0 -0 0 0 1 0 0 0 -0 0 -0 -0 -1 -1 -1 -1 -1 -2 -2 -2 -2 -2 -2 -2 -2 -2 -2 -1 -1 -1 -1 -1 -2 -1 -1 -1 -1
-1 -0 -0 -0 -0 0 0 0 0 -0 0 0 1 1 0 -0 -0 -0 -0 -1 -1 -1 -1 -1 -2 -1 -2 -2 -2 -2 -2 -1 -1 -1 -1 -1 -1 -2 -2 -2 -1 -2 -1
-0 -0 -0 -0 -0 0 0 -0 0 1 1 0 1 2 1 0 0 0 -0 -0 -0 -1 -1 -1 -1 -1 -1 -1 -1 -2 -2 -2 -1 -1 -1 -1 -1 -2 -2 -2 -1 -1 -0
-1 0 -0 0 0 0 0 0 0 1 1 1 2 2 4 3 1 0 0 -0 -0 -0 -1 -1 -1 -1 -1 -1 -1 -2 -2 -1 -1 -1 -1 -1 -1 -1 -2 -1 -1 -0 0
-0 -0 -0 0 0 0 1 0 1 1 3 1 0 2 4 5 3 1 1 0 0 0 -0 -0 -0 -1 -1 -0 -1 -2 -2 -2 -2 -1 -1 -1 -1 -1 -1 -1 -0 -0 0
-0 -0 0 -0 -0 0 0 0 0 0 1 2 1 1 1 2 4 5 1 1 0 0 -0 -1 -0 -1 -1 -1 -2 -2 -1 -1 -2 -1 -1 -1 -1 -1 -1 -1 -1 -0 -0
-0 0 0 -0 -0 0 -0 0 0 0 1 1 2 2 1 2 2 3 5 3 1 0 0 -1 -0 -1 -1 -1 -2 -1 -1 -1 -1 -1 -1 -1 -1 -1 -1 -1 -1 -1 0
1 0 0 -0 -0 -0 0 0 -0 0 0 0 1 1 2 3 3 3 3 3 3 1 1 0 -0 -1 -2 -2 -1 -1 -0 0 0 1 0 -0 -1 -1 -1 -1 -1 -1 -1
1 1 0 -0 0 -0 -0 -0 -0 0 0 1 0 1 1 1 1 1 2 3 3 2 1 0 -1 -0 -1 -2 -1 -1 -1 1 2 2 2 1 0 -0 -1 -1 -1 -1 -2
1 0 0 -0 -0 -0 -0 -1 0 0 0 0 0 0 1 1 0 1 1 3 4 3 2 2 -1 -0 -1 -2 -1 -1 -1 2 2 3 3 2 1 0 -0 -0 -1 -1 -1
1 0 -0 -0 -0 -0 -0 -0 0 0 0 0 0 0 1 0 -0 1 0 1 2 5 4 3 2 -1 -1 -2 -1 -2 -2 1 2 3 3 2 2 1 1 1 0 0 -0
-0 0 0 0 -0 -0 -0 -0 -0 -0 1 0 0 0 1 1 0 0 -0 0 1 2 4 2 1 0 -1 -1 -1 -2 -1 0 3 4 4 3 3 2 2 2 2 1 1
0 0 0 0 0 0 -0 -0 -0 0 1 0 0 1 1 0 1 1 0 0 1 1 4 2 1 0 0 -0 -0 -1 -1 -0 2 4 3 3 3 3 3 3 3 2 2
-0 -0 0 0 0 0 -0 0 1 1 1 1 1 1 1 1 1 0 0 1 1 0 2 3 2 1 1 1 0 1 0 1 2 3 4 3 4 5 4 4 4 3 4
0 -0 0 0 0 0 1 0 0 0 1 1 1 1 1 1 2 1 1 1 1 1 1 2 3 2 2 2 3 2 2 2 2 3 4 4 4 4 4 4 5 5 5
0 0 0 0 0 0 0 1 0 1 1 1 1 1 1 1 1 1 1 1 1 2 1 2 3 3 3 3 3 4 5 4 4 3 3 3 4 4 4 5 5 5 6
0 0 0 1 0 0 1 1 0 1 1 1 1 1 0 1 1 2 0 1 1 2 2 3 3 4 5 4 5 4 5 5 4 4 4 4 4 3 3 4 3 5 6
0 0 1 1 0 1 8 7 3 1 1 1 2 1 1 1 1 4 4 5 1 2 2 3 3 4 4 4 4 4 5 5 7 4 4 4 2 3 2 2 4 7 7
1 1 1 1 1 1 7 7 6 0 1 1 1 1 1 0 1 0 4 5 5 5 2 1 2 3 4 3 4 4 2 3 4 5 5 6 4 3 2 4 8 8 7
1 0 1 0 1 1 8 8 8 1 1 1 1 1 1 1 1 1 1 1 1 0 0 0 1 2 2 2 2 2 2 4 4 4 3 7 5 4 3 3 8 8 6
1 1 1 1 1 1 9 9 5 1 1 1 1 1 1 1 6 8 1 1 2 1 6 6 5 7 8 7 4 2 4 5 6 6 4 5 5 4 4 3 4 7 6
1 1 1 1 3 1 9 9 5 1 2 2 1 2 6 2 9 9 1 2 2 2 2 2 4 5 5 6 6 1 3 5 5 6 4 4 3 3 5 2 1 3 4

GFSMA_con_lsi_054.txt.gz
Lid_Strength_Index
0 0 0 -0 -0 -0 -0 0 0 0 0 0 -0 -0 0 -0 -0 -0 -0 -2 -2 -2 -2 -2 -2 -1 -2 -2 -2 -2 -2 -1 -1 -1 -1 -2 -2 -2 -1 -1 -2 -1 -1
0 0 0 0 0 -0 -0 -0 0 0 0 0 0 0 0 -0 -0 -0 -0 -1 -2 -2 -2 -1 -1 -1 -2 -2 -2 -2 -2 -2 -1 -1 -1 -1 -1 -2 -2 -1 -2 -1 -1
0 0 0 0 0 -0 -0 -0 0 0 1 0 1 0 0 0 0 -0 -0 -0 -1 -1 -1 -2 -2 -2 -2 -2 -2 -2 -2 -2 -1 -1 -1 -1 -1 -2 -1 -1 -1 -1 -1
-0 0 1 0 0 -0 0 0 1 1 1 1 1 1 1 0 0 0 -0 -0 -0 -0 -1 -2 -2 -1 -2 -2 -1 -2 -1 -1 -1 -1 -1 -1 -1 -1 -1 -1 -1 -1 -1
0 0 0 0 0 0 0 1 1 1 2 1 1 1 1 1 1 -0 0 0 -0 -0 -0 -2 -2 -2 -2 -2 -2 -2 -2 -1 -1 -1 -1 -1 -1 -1 -1 -1 -2 -1 -1
0 0 0 0 0 1 1 1 1 1 1 1 1 2 1 1 0 0 0 -0 0 -0 -0 -0 -0 -1 -2 -2 -2 -2 -2 -2 -2 -1 -1 -1 -1 -1 -1 -1 -2 -1 -1
0 0 0 0 0 1 1 1 1 2 2 1 2 2 2 1 1 1 1 1 0 0 -0 -0 -0 -0 -0 -2 -2 -2 -2 -1 -2 -1 -1 -1 -1 -1 -1 -2 -2 -1 -1
0 0 1 1 1 1 1 1 1 2 2 1 3 3 5 4 2 1 1 1 1 0 0 -0 -0 -0 -1 -0 -1 -1 -2 -2 -2 -1 -1 -1 -1 -1 -1 -1 -1 -1 -1
0 0 0 0 1 1 1 1 1 2 3 2 1 3 6 7 4 2 2 1 1 1 0 0 -0 -0 -0 -0 -1 -1 -1 -1 -2 -1 -1 -1 -1 -1 -1 -1 -1 -1 -1
0 0 0 0 1 1 1 1 1 1 2 3 2 2 2 3 6 6 3 2 1 1 1 1 0 -0 0 2 0 -1 -1 -1 -1 -1 -1 -1 -1 -1 -1 -1 -1 -1 -1
0 0 0 0 1 1 1 1 1 1 1 2 3 3 2 3 3 5 6 5 2 1 1 1 0 -0 1 1 0 1 -1 -0 -0 -0 -1 -1 -1 -1 -1 -1 -1 -1 -1
1 0 0 1 1 1 1 1 1 1 1 1 2 2 3 4 4 4 5 5 5 3 1 1 1 0 0 -0 -0 -0 0 0 0 1 0 -0 -1 -1 -1 -1 -1 -1 -1
2 1 1 1 1 0 0 1 1 1 1 2 2 2 2 2 2 3 4 4 5 3 3 1 1 0 -0 -0 -0 -1 -0 1 1 2 2 1 0 -0 -1 -1 -2 -1 -1
1 1 1 1 1 0 0 0 1 1 1 1 1 1 2 1 1 2 3 4 5 5 3 3 1 0 0 -0 -1 -1 0 2 2 3 2 2 1 1 -0 -0 -1 -1 -1
1 1 1 1 1 1 1 1 1 1 1 1 1 1 1 1 1 1 2 2 4 7 6 3 3 0 0 -0 -0 -0 -0 1 2 3 3 3 2 2 1 1 0 0 0
1 1 1 1 1 1 1 1 1 1 1 1 1 1 1 1 1 1 1 2 2 4 6 3 2 1 0 -0 -0 -0 -0 1 3 4 4 4 3 2 2 2 1 1 1
1 1 1 1 1 1 1 1 1 1 1 1 1 1 2 1 2 1 1 2 2 2 4 3 2 1 1 1 0 1 -0 1 3 4 3 4 3 3 3 3 3 2 2
1 1 1 1 1 1 1 1 1 1 2 2 2 2 2 1 2 1 1 2 2 2 3 4 2 2 2 1 1 1 0 1 2 3 3 4 4 4 4 4 4 4 3
1 1 1 1 1 1 1 1 1 1 1 1 1 2 2 2 2 2 2 2 2 2 2 3 3 2 2 2 2 2 1 2 2 3 4 4 4 4 4 5 5 4 4
1 1 1 1 1 1 1 1 1 1 1 1 1 1 1 2 2 2 2 2 2 2 2 3 3 3 3 2 2 3 4 3 4 3 3 3 4 4 4 4 4 4 6
1 1 1 1 1 1 1 1 1 1 1 2 1 1 2 2 2 2 1 2 2 2 2 3 3 3 3 4 4 3 4 4 4 4 4 3 2 3 4 4 3 4 6
1 1 1 1 1 2 9 8 3 1 1 2 2 2 1 2 2 4 4 4 2 2 3 3 3 4 4 5 4 4 4 5 6 4 5 4 3 3 2 3 5 7 7
1 1 1 1 1 3 9 7 6 1 1 1 1 2 2 1 1 1 5 5 5 5 3 2 3 3 4 3 3 4 3 4 5 4 4 6 3 4 4 5 7 7 7
2 2 1 1 1 3 7 7 8 1 1 1 1 1 1 1 1 1 1 1 1 1 1 1 2 3 3 3 2 2 3 5 4 4 4 6 5 5 3 6 7 8 7
2 2 1 1 1 2 9 8 5 1 2 1 1 2 1 1 8 8 1 2 2 3 6 5 6 8 8 7 5 3 4 5 6 6 4 6 6 5 5 5 7 8 7
2 1 2 1 4 2 9 9 5 1 2 2 1 2 7 4 9 9 1 2 3 3 3 3 4 7 5 6 6 3 3 5 6 6 4 5 5 5 7 4 5 7 6

GFSMA_con_lsi_057.txt.gz
Lid_Strength_Index
1 0 1 1 1 0 0 0 0 0 0 0 0 0 0 0 1 1 -0 -2 -2 -2 -2 -2 -2 -2 -1 -1 -2 -2 -1 -1 -1 -1 -1 -2 -2 -1 -1 -2 -2 -1 -1
1 1 2 1 1 1 0 0 1 1 0 0 0 0 0 0 1 0 0 -0 -2 -2 -2 -2 -2 -2 -2 -2 -1 -2 -1 -1 -1 -1 -1 -1 -1 -1 -1 -2 -2 -1 -1
2 1 2 3 2 1 1 1 1 1 1 0 1 0 0 0 0 0 -0 0 -1 -2 -1 -2 -2 -1 -2 -2 -1 -1 -1 -2 -1 -1 -1 -1 -1 -1 -1 -1 -2 -2 -1
2 1 1 2 2 1 1 1 1 2 1 1 1 2 1 1 0 0 1 0 0 -0 -1 -2 -2 -2 -2 -2 -2 -2 -1 -1 -2 -1 -1 -1 -1 -1 -1 -1 -2 -1 -1
1 2 1 2 2 2 2 1 2 2 2 2 3 2 1 1 1 0 1 1 0 0 -0 -1 -2 -2 -2 -2 -2 -2 -2 -1 -2 -2 -1 -1 -1 -1 -1 -1 -1 -1 -1
1 1 1 2 1 2 1 2 2 2 3 2 2 2 1 2 1 1 1 0 1 0 0 0 -0 -1 -2 -2 -2 -2 -2 -1 -2 -2 -1 -1 -1 -1 -1 -1 -2 -2 -1
1 1 1 1 2 2 2 2 2 3 3 2 3 3 3 2 2 1 1 1 1 0 1 0 -0 0 -0 -2 -2 -2 -2 -1 -2 -2 -1 -1 -1 -1 -2 -1 -2 -1 -1
1 1 2 2 2 2 2 2 2 3 3 3 4 4 6 4 2 2 2 2 2 1 0 0 -0 0 0 -0 -0 -2 -2 -1 -2 -2 -1 -1 -1 -1 -1 -1 -1 -1 -1
1 1 1 2 2 2 2 2 2 4 4 4 2 4 6 7 5 3 3 2 2 2 2 1 0 -0 0 1 -0 -1 -1 -1 -2 -2 -1 -1 -1 -1 -1 -1 -1 -1 -1
1 1 1 2 1 2 2 2 2 3 3 4 3 2 3 4 6 7 4 3 2 2 2 2 2 0 -0 -0 -1 -1 -1 -1 -2 -2 -1 -1 -1 -1 -1 -1 -1 -1 -1
1 1 2 1 1 2 2 2 2 2 3 3 4 4 4 4 4 5 7 5 3 2 2 2 1 1 1 0 0 0 -0 -0 -0 -1 -1 -1 -1 -1 -1 -1 -1 -1 -1
2 2 1 1 1 1 1 2 2 2 3 3 3 3 4 4 5 5 6 5 5 3 3 2 2 1 1 1 0 -0 -0 0 1 1 0 -0 -1 -1 -1 -1 -1 -2 -2
3 2 1 1 1 1 1 1 2 2 2 2 3 3 3 3 3 3 4 5 5 4 3 3 1 1 1 -0 -0 -1 -1 1 2 2 2 1 0 -0 -1 -1 -1 -1 -1
2 2 1 1 1 1 2 1 2 2 2 2 3 3 3 3 2 3 3 4 6 5 4 4 2 2 0 -0 -0 -1 0 1 2 2 2 2 1 0 -0 -0 -1 -1 -1
2 2 1 1 1 1 2 2 2 2 2 2 2 3 3 3 2 2 2 3 4 7 6 3 3 1 0 -0 -0 -0 0 1 1 2 3 3 2 1 1 1 1 0 -0
1 1 1 1 2 2 2 2 2 2 2 2 2 2 3 2 2 2 2 2 3 4 6 3 2 1 1 -0 -0 0 0 2 3 3 3 3 3 3 2 2 1 1 1
1 1 1 2 2 2 2 2 2 2 2 2 2 2 2 2 2 2 2 2 3 3 5 3 2 1 1 1 1 0 0 2 3 3 3 3 4 3 3 3 2 2 2
1 2 2 2 1 1 2 2 2 2 2 2 2 2 2 1 2 2 2 2 2 3 3 4 3 2 2 1 1 1 1 1 1 3 4 4 4 4 4 4 4 3 3
3 2 2 2 1 1 1 1 2 2 2 2 2 2 2 2 2 2 2 2 3 2 3 3 3 3 3 2 2 1 1 1 2 3 5 5 4 4 4 4 4 5 5
2 2 1 1 1 1 1 1 1 1 1 2 2 2 3 2 2 2 2 2 2 2 3 4 3 4 3 3 2 3 3 2 3 3 3 4 4 4 4 4 4 4 6
2 2 2 2 1 1 1 1 1 2 2 3 3 3 2 2 2 2 2 2 2 3 3 3 3 3 3 3 3 4 5 4 4 4 4 3 3 3 4 4 3 4 6
2 2 2 2 3 3 9 7 3 2 2 3 4 3 2 2 3 5 4 4 2 3 4 3 3 4 3 4 3 3 3 3 6 3 4 4 2 3 3 3 5 6 7
2 2 2 2 4 5 9 8 6 2 3 3 3 3 2 1 2 2 5 5 5 5 4 3 3 3 3 3 3 3 3 4 5 5 3 5 3 3 3 4 7 7 8
2 2 2 3 5 6 9 7 7 2 3 3 3 3 2 2 3 2 2 3 3 3 3 1 2 2 2 2 2 2 4 4 3 4 5 6 4 4 5 6 8 8 8
3 3 2 4 5 5 9 8 6 2 2 3 2 2 2 2 8 8 2 3 4 4 6 5 6 7 8 7 4 3 4 4 5 5 4 6 5 5 5 7 7 8 9
2 2 2 2 5 5 10 9 6 2 3 3 3 3 9 5 10 8 2 3 3 3 3 4 5 7 6 6 6 3 3 4 5 6 5 7 5 6 7 5 7 8 8

GFSMA_con_lsi_060.txt.gz
Lid_Strength_Index
1 0 0 0 0 1 0 0 0 0 0 0 0 0 0 0 -0 1 1 -1 -1 -1 -2 -2 -2 -2 -1 -1 -1 -1 -1 -1 -1 -1 -2 -2 -1 -1 -1 -2 -2 -1 -2
0 1 2 2 2 2 0 0 0 0 0 0 0 0 0 0 0 1 1 -0 -1 -1 -2 -2 -2 -2 -2 -1 -1 -1 -1 -1 -1 -1 -1 -1 -2 -1 -1 -1 -2 -2 -1
2 2 3 3 3 3 3 1 2 2 2 1 1 0 0 0 -0 1 1 -0 -0 -1 -1 -2 -2 -2 -2 -2 -1 -1 -1 -1 -1 -1 -1 -1 -1 -1 -1 -2 -2 -1 -1
2 2 3 3 3 3 3 2 2 3 3 2 1 1 1 1 0 0 0 -0 -0 -0 -1 -2 -2 -2 -2 -2 -2 -2 -1 -1 -1 -1 -1 -1 -1 -2 -2 -2 -1 -1 -1
2 2 3 3 4 3 3 3 2 2 3 3 1 1 2 1 1 0 0 1 1 0 -0 -1 -2 -2 -2 -2 -2 -2 -2 -1 -1 -1 -1 -1 -1 -2 -2 -1 -1 -1 -1
1 2 2 3 3 4 3 3 3 2 3 3 2 2 2 2 2 2 1 0 1 1 1 0 0 -0 -2 -2 -2 -2 -2 -1 -1 -1 -1 -1 -1 -1 -1 -2 -1 -1 -1
1 2 3 3 2 3 3 3 3 3 3 3 4 4 3 2 3 2 2 2 1 1 1 1 1 0 -0 -1 -2 -2 -2 -2 -1 -1 -1 -1 -1 -1 -1 -1 -1 -1 -1
1 1 2 2 2 2 3 3 3 4 4 4 5 4 5 4 3 2 2 2 2 2 1 1 1 1 0 -0 -0 -2 -2 -2 -2 -1 -1 -1 -1 -1 -1 -1 -1 -1 -1
0 1 1 2 2 2 3 3 3 4 4 4 3 3 6 7 6 4 3 3 3 3 2 2 1 0 0 0 -1 -1 -2 -1 -2 -2 -1 -1 -1 -1 -1 -1 -1 -1 -1
1 1 1 2 2 3 3 3 3 4 4 4 3 2 3 4 6 7 4 3 3 3 3 3 2 1 1 1 -0 -1 -1 -1 -1 -1 -1 -1 -1 -1 -1 -1 -1 -1 -1
1 1 2 3 2 2 3 3 3 3 2 3 3 4 4 4 4 6 7 5 4 3 3 3 3 2 1 1 1 -0 -0 -1 -0 -0 -1 -1 -1 -2 -1 -1 -1 -1 -1
2 2 2 2 2 2 2 2 3 3 3 4 4 4 4 5 5 5 6 6 5 4 3 3 2 2 2 2 -0 -1 0 1 1 1 0 -1 -1 -1 -1 -1 -1 -1 -2
3 3 2 2 2 2 2 2 2 2 3 3 3 4 4 4 4 4 5 6 5 5 4 3 3 2 2 1 1 -1 -0 1 2 2 1 1 0 -0 -1 -1 -1 -1 -1
2 2 2 2 1 1 2 2 2 3 3 3 4 4 4 4 3 4 4 5 6 6 5 4 3 2 1 1 -0 -0 -0 1 2 2 2 2 1 1 0 -0 -0 -1 -1
2 2 2 2 1 2 2 2 2 3 3 4 3 3 4 4 3 3 3 4 5 7 6 4 4 2 1 0 -0 -0 1 1 2 3 3 2 2 2 1 1 1 0 0
2 2 2 2 2 2 2 3 3 3 3 3 3 3 3 3 3 2 2 3 4 5 6 4 3 3 0 0 -0 1 1 2 3 2 3 2 3 2 2 2 2 1 1
3 2 2 2 2 2 2 3 3 3 3 3 3 3 3 3 2 3 2 3 3 4 6 3 2 2 2 1 0 1 1 2 3 2 3 3 3 3 3 3 3 2 2
2 1 1 2 2 2 3 3 3 2 2 3 3 3 3 2 3 3 2 3 3 4 4 4 2 2 2 1 1 1 1 1 2 3 3 3 4 4 4 4 4 4 4
2 2 2 2 2 2 3 3 2 2 3 3 3 3 3 3 3 3 2 2 2 3 3 3 3 2 2 1 2 2 2 2 2 2 4 4 4 4 4 5 4 5 5
2 3 3 2 2 2 2 1 2 2 3 3 2 3 3 3 2 2 2 2 2 3 3 3 3 3 3 2 2 3 3 2 3 3 3 4 4 4 5 4 4 4 6
2 3 3 2 2 2 2 2 2 2 3 3 3 3 3 2 2 3 2 2 2 3 3 3 4 4 3 3 3 3 4 3 4 4 4 3 3 3 4 4 3 4 6
4 4 3 3 3 3 8 5 3 3 3 4 4 4 3 3 3 5 4 3 2 3 3 3 3 4 3 4 3 3 3 3 5 3 4 4 3 3 3 3 5 6 7
4 4 4 4 4 5 10 9 7 3 3 4 4 4 3 1 3 2 5 6 5 5 4 3 3 3 3 3 3 3 2 4 4 4 3 5 3 4 3 5 7 7 7
3 3 4 4 5 7 10 9 6 3 4 3 4 3 3 2 2 2 2 2 3 3 3 3 3 3 2 2 2 3 3 4 3 3 4 6 4 4 4 4 7 7 8
2 2 3 5 6 6 10 9 5 3 4 4 3 3 3 2 9 8 2 3 4 4 7 6 6 7 8 7 4 3 3 4 5 4 3 4 4 4 5 6 6 8 9
2 2 4 5 6 5 10 10 6 3 4 3 3 4 9 4 10 9 3 3 4 4 4 4 5 7 5 6 6 2 3 4 5 5 4 5 5 5 6 5 6 6 7

GFSMA_con_lsi_063.txt.gz
Lid_Strength_Index
1 0 0 0 0 1 0 0 1 0 0 0 0 0 0 0 0 0 1 -1 -1 -1 -2 -2 -2 -2 -1 -1 -1 -1 -1 -1 -1 -1 -1 -2 -2 -1 -1 -1 -1 -1 -1
0 1 2 1 1 1 2 2 1 1 1 0 0 0 0 0 0 0 1 1 -1 -1 -2 -2 -2 -2 -2 -1 -1 -1 -1 -1 -1 -1 -1 -1 -2 -2 -1 -1 -2 -1 -1
1 2 2 3 2 3 3 3 3 2 2 1 1 1 0 0 0 0 0 -0 -1 -1 -2 -2 -2 -2 -1 -1 -1 -1 -1 -1 -1 -1 -1 -1 -1 -2 -2 -1 -1 -1 -1
2 3 3 4 4 4 4 3 4 4 3 2 2 1 1 1 1 0 -0 0 0 -0 -1 -2 -2 -2 -2 -2 -2 -1 -1 -1 -1 -1 -1 -1 -1 -1 -1 -1 -2 -1 -1
1 2 3 3 4 4 4 4 4 4 4 3 3 2 2 2 1 0 0 1 0 0 1 -1 -2 -2 -2 -2 -2 -2 -1 -1 -1 -1 -1 -1 -1 -1 -1 -2 -2 -1 -1
1 2 2 3 4 4 4 5 5 4 4 3 2 2 3 2 1 1 1 1 1 1 1 1 1 -0 -2 -2 -2 -2 -2 -1 -1 -1 -1 -1 -1 -1 -1 -2 -2 -1 -1
1 3 3 3 3 4 4 4 5 5 4 4 4 5 4 3 2 3 3 2 2 1 1 1 1 1 0 -1 -2 -2 -2 -2 -1 -1 -1 -1 -1 -1 -1 -1 -2 -1 -1
1 2 3 3 3 4 4 4 4 5 4 3 4 5 6 5 4 3 3 3 2 2 1 1 1 1 1 1 -0 -2 -2 -2 -2 -1 -1 -1 -1 -1 -1 -1 -1 -1 -1
0 1 2 3 3 3 4 4 4 4 5 4 3 3 6 7 5 5 4 3 3 3 2 2 1 1 1 1 -0 -1 -2 -2 -2 -2 -1 -1 -1 -1 -1 -1 -1 -1 -1
2 1 1 2 2 2 3 3 3 4 4 4 3 2 3 4 6 7 5 4 3 3 3 3 2 2 1 1 -0 -1 -1 -1 -2 -1 -1 -1 -1 -1 -1 -1 -1 -1 -1
1 1 1 1 2 2 3 3 4 4 3 3 3 4 4 4 5 5 7 6 4 3 3 3 3 2 2 2 1 0 -0 -1 -1 -1 -1 -1 -1 -1 -1 -1 -1 -1 -1
2 1 1 2 2 3 3 3 3 4 4 4 3 3 3 5 6 6 7 6 5 4 4 3 3 3 2 2 1 -0 -0 0 1 1 1 -0 -1 -1 -1 -1 -1 -1 -1
3 2 2 3 3 3 3 3 3 3 3 4 5 5 5 5 5 5 6 6 6 5 4 4 3 3 2 2 2 -1 -1 1 1 2 2 1 0 -0 -0 -1 -1 -1 -1
2 2 3 2 2 2 3 3 2 3 3 4 4 4 5 5 5 4 5 6 7 6 6 5 4 3 2 2 0 -1 0 1 2 3 3 2 2 1 0 0 0 -0 -1
2 2 2 2 2 2 3 3 3 3 3 4 4 4 5 5 4 4 4 4 5 7 6 5 4 3 1 1 0 0 0 1 2 3 3 3 2 2 2 1 1 1 1
2 2 3 3 3 2 2 2 3 3 4 4 4 4 4 4 4 4 4 4 5 5 7 5 4 4 1 0 -0 1 2 2 3 2 3 3 3 3 3 2 2 2 1
2 2 2 3 3 2 3 3 3 3 4 4 4 4 4 4 4 3 3 4 4 5 6 3 2 2 1 1 0 1 1 2 3 3 3 3 3 4 3 3 3 2 2
2 2 3 3 2 2 3 3 3 3 4 4 3 4 3 3 3 3 4 4 4 4 4 4 3 3 2 1 1 1 1 1 2 2 3 4 3 4 4 4 4 4 4
2 2 2 2 2 2 3 3 3 3 3 3 3 3 3 3 4 4 4 3 4 3 4 4 3 3 2 1 2 2 2 2 2 2 3 4 4 4 4 5 5 5 5
3 3 2 1 2 2 3 4 3 3 3 3 3 3 3 3 4 3 3 2 3 3 3 3 3 3 3 2 2 3 3 3 3 3 3 3 4 4 4 5 4 4 6
3 2 2 2 3 3 3 3 2 3 3 4 4 3 3 3 3 3 2 2 3 3 3 3 3 3 3 3 3 3 4 3 4 3 3 3 3 3 3 4 3 4 6
3 2 3 3 4 3 8 7 4 3 3 4 4 4 4 4 4 5 4 4 3 3 3 3 4 4 3 4 3 4 4 3 4 3 4 4 3 3 3 2 4 6 7
3 4 5 4 5 5 10 8 6 2 3 4 5 5 4 3 3 3 6 6 5 6 4 2 4 3 3 3 3 3 4 4 4 4 3 5 3 4 3 4 6 7 7
5 6 5 5 5 7 11 10 8 4 4 4 4 4 4 3 3 3 3 2 2 3 3 2 2 3 3 2 2 2 4 4 3 4 3 6 4 5 4 4 7 7 8
6 6 5 5 6 7 11 11 5 4 4 4 4 4 3 2 7 8 2 3 3 4 7 7 7 7 8 7 4 3 4 3 4 5 4 5 4 4 5 4 5 7 8
4 4 5 5 7 6 11 10 5 4 4 4 4 4 8 5 10 10 2 3 4 4 4 5 5 7 6 6 6 2 3 3 5 5 3 5 5 4 5 4 5 5 6

GFSMA_con_lsi_069.txt.gz
Lid_Strength_Index
-0 -1 -1 -1 -1 -1 -1 -1 -1 -1 -1 -1 -1 -1 -1 -1 -1 -1 -1 -1 -1 -1 -1 -1 -2 -2 -2 -2 -2 -2 -2 -1 -1 -1 -1 -1 -2 -2 -1 -1 -1 -1 -1
-1 -1 -0 -1 -1 -1 -1 -1 -1 -1 -1 -1 -1 -1 -1 -1 -1 -1 -1 -2 -2 -1 -1 -1 -2 -2 -2 -2 -1 -2 -2 -1 -1 -1 -1 -1 -2 -2 -2 -2 -1 -1 -1
-1 -1 -0 -0 -1 -1 -1 -1 -1 -1 -0 -0 -0 -1 -1 -1 -1 -1 -1 -2 -2 -1 -1 -1 -2 -3 -2 -1 -1 -2 -2 -2 -1 -1 -1 -1 -2 -2 -2 -1 -2 -1 -1
-1 -1 -0 -0 -1 -1 -1 -0 0 1 1 1 1 -0 -0 -1 -1 -1 -1 -1 -1 -1 -1 -1 -2 -2 -2 -2 -2 -2 -2 -2 -1 -1 -1 -1 -2 -2 -2 -2 -2 -1 -1
-1 -1 -0 -0 -1 -1 0 0 0 1 1 1 1 0 -0 -0 -0 -1 -1 -1 -1 -1 -1 -1 -1 -2 -2 -2 -2 -2 -2 -2 -1 -1 -1 -1 -1 -1 -2 -2 -2 -2 -1
-1 -1 -0 -0 -0 0 0 1 0 0 1 1 1 1 0 -0 -0 -0 -0 -1 -1 -1 -1 -1 -1 -1 -1 -2 -2 -2 -2 -2 -2 -1 -1 -1 -1 -1 -1 -2 -2 -2 -2
-1 -0 0 0 -0 1 0 -0 0 1 1 1 2 2 1 0 0 -0 -0 -0 -1 -1 -1 -1 -1 -1 -1 -1 -1 -2 -2 -2 -1 -2 -1 -1 -1 -1 -1 -1 -2 -2 -1
-0 0 0 0 0 0 0 0 0 1 1 1 2 2 4 3 1 0 0 0 -0 -1 -0 -1 -1 -1 -1 -1 -2 -2 -2 -2 -2 -2 -1 -1 -1 -1 -1 -1 -1 -2 -2
-0 -0 0 0 0 0 1 1 1 1 2 1 1 2 5 5 3 1 1 0 -0 0 -0 -1 -1 -1 -1 -1 -1 -1 -1 -2 -2 -2 -2 -1 -1 -1 -1 -1 -1 -1 -2
-0 -0 -0 0 0 0 1 1 0 1 1 2 1 1 1 1 4 5 1 1 0 0 -0 -0 -0 -1 -1 -1 -1 -1 -1 -1 -2 -2 -2 -1 -1 -1 -1 -1 -1 -1 -2
-0 -0 -0 -0 0 0 0 0 1 1 1 2 2 2 2 2 1 3 5 3 1 0 -0 -0 -1 -1 -1 -1 -1 -1 -1 -1 -1 -1 -1 -1 -1 -1 -1 -1 -1 -1 -1
1 0 -0 0 -0 0 0 0 0 0 1 1 1 2 2 3 3 3 4 3 3 1 0 -0 -0 -1 -1 -1 -1 -1 -0 -0 0 -0 -1 -1 -1 -1 -1 -1 -1 -1 -1
1 1 0 0 0 0 0 0 0 0 1 1 1 1 1 2 1 2 3 3 3 2 1 -0 -0 -1 -1 -1 -2 -1 -0 0 1 1 1 -0 0 -0 -1 -1 -1 -1 -1
1 0 0 0 0 0 0 0 0 1 0 1 1 1 1 1 1 1 2 3 4 3 2 2 -1 -1 -1 -1 -1 -1 -1 0 1 2 2 1 1 1 0 0 -0 -1 -0
1 0 0 0 0 0 0 0 1 1 0 1 1 1 1 1 0 0 1 1 3 5 4 2 2 -1 -1 -1 -1 -1 -1 0 0 2 2 2 2 2 2 2 1 1 1
0 1 1 0 0 0 0 0 1 0 1 1 1 1 1 1 0 0 1 1 1 2 4 1 1 -0 -1 -0 -1 -1 -1 0 1 3 2 3 3 3 2 2 2 2 1
1 1 1 1 1 1 0 1 1 1 1 1 2 1 1 0 1 1 1 1 1 1 3 2 1 -0 0 0 0 -1 -1 -1 -1 3 3 3 4 3 3 3 3 2 2
0 1 1 1 1 1 1 1 1 1 1 2 2 1 1 1 1 0 1 1 1 1 2 3 2 1 1 -0 -0 0 -0 -1 -1 2 3 4 4 4 5 4 4 3 3
1 1 1 1 1 1 1 1 1 1 1 1 1 1 1 1 1 1 1 1 1 1 1 2 2 1 1 0 1 0 1 -0 -1 2 4 4 4 4 5 5 5 5 5
1 1 1 1 1 1 1 1 1 1 2 2 1 1 1 1 1 1 1 1 1 1 1 2 2 2 2 1 1 2 2 1 1 0 2 3 3 4 5 5 4 5 6
1 1 1 1 1 1 1 1 1 1 2 1 1 0 0 1 2 1 1 1 1 2 2 2 3 3 3 3 3 2 2 1 1 1 1 -0 0 1 2 4 3 4 6
1 1 1 1 1 1 9 7 3 1 1 1 1 1 0 2 2 5 4 4 2 1 2 2 3 3 3 2 2 2 2 3 4 0 2 2 1 2 2 1 4 6 6
2 2 1 1 1 1 10 9 7 1 1 1 1 1 1 0 1 0 5 6 4 5 3 1 3 2 2 2 2 2 2 2 3 2 2 3 2 2 2 3 6 7 7
2 2 2 1 1 1 11 11 8 0 1 1 0 0 1 1 0 1 1 1 1 0 1 0 1 1 0 1 0 1 1 1 1 2 1 4 3 3 3 3 6 7 8
2 2 2 2 2 6 12 12 4 1 1 1 1 0 0 1 7 8 1 2 2 1 7 6 6 6 6 6 2 1 3 3 3 2 1 1 3 3 3 2 4 7 8
2 2 3 1 6 4 14 11 4 1 1 1 1 0 8 2 10 10 1 1 3 3 3 3 4 5 5 4 6 -0 2 3 3 3 1 2 2 1 4 2 3 4 4

GFSMA_con_lsi_072.txt.gz
Lid_Strength_Index
-1 -1 -1 -1 -1 -1 -1 -1 -1 -1 -1 -1 -1 -1 -1 -1 -2 -1 -2 -2 -2 -1 -1 -1 -1 -2 -2 -2 -2 -3 -2 -1 -1 -1 -1 -2 -2 -2 -1 -1 -2 -2 -1
-1 -1 -1 -1 -1 -1 -1 -1 -1 -1 -1 -1 -1 -1 -1 -1 -2 -2 -1 -2 -3 -2 -1 -1 -1 -1 -2 -2 -2 -2 -2 -1 -1 -1 -1 -1 -2 -2 -2 -1 -1 -2 -2
-2 -1 -1 -1 -1 -2 -2 -2 -1 -1 -1 -1 -1 -1 -1 -1 -1 -1 -1 -1 -2 -3 -2 -1 -1 -1 -2 -2 -2 -2 -2 -2 -1 -1 -1 -1 -1 -1 -2 -1 -1 -2 -2
-2 -1 -1 -1 -2 -2 -1 -1 -0 -0 -0 -0 -0 -0 -0 -1 -1 -1 -1 -1 -2 -1 -1 -2 -2 -2 -2 -2 -2 -1 -2 -2 -1 -1 -1 -1 -1 -1 -1 -2 -1 -1 -2
-1 -1 -1 -1 -2 -1 -1 -0 -0 -0 0 0 0 -0 -0 -0 -1 -1 -1 -1 -2 -1 -1 -2 -1 -2 -2 -2 -2 -2 -2 -2 -2 -1 -1 -1 -1 -1 -2 -2 -2 -1 -1
-1 -1 -1 -1 -1 -0 0 -0 0 -0 0 0 1 0 0 -0 -0 -0 -1 -1 -1 -1 -2 -2 -2 -1 -2 -2 -2 -2 -2 -2 -2 -1 -1 -1 -1 -1 -1 -1 -2 -1 -1
-1 -1 -0 -0 -0 0 1 1 1 1 1 0 1 1 1 0 -0 -0 -1 -1 -1 -1 -1 -1 -2 -1 -1 -2 -2 -2 -2 -2 -2 -2 -1 -1 -1 -1 -1 -1 -2 -2 -1
-1 -1 -0 -0 -0 0 0 0 0 1 1 0 2 2 4 2 1 0 -0 -0 -1 -1 -1 -1 -1 -1 -1 -1 -2 -2 -2 -2 -2 -2 -1 -1 -1 -1 -1 -1 -1 -1 -1
-1 -1 -1 -0 -0 0 1 0 0 1 2 1 0 2 4 5 2 1 1 0 -0 -0 -1 -1 -1 -1 -2 -2 -1 -1 -1 -1 -2 -1 -2 -1 -1 -1 -1 -1 -1 -1 -1
-0 -1 -0 -0 -0 -0 -0 0 0 0 1 2 1 1 1 1 4 4 1 1 0 0 -0 -0 -1 -1 -1 -1 -2 -1 -1 -1 -2 -2 -2 -1 -1 -1 -1 -1 -1 -1 -1
-0 -0 -0 -0 -0 0 -0 -0 0 0 1 1 2 2 2 2 1 3 5 3 1 0 -0 -0 -1 -1 -1 -1 -1 -1 -0 -1 -1 -1 -2 -1 -2 -1 -1 -1 -1 -1 -1
0 -0 -0 -0 -0 -0 -0 0 0 0 1 1 1 1 2 3 3 3 4 3 2 1 0 -0 -0 -1 -1 -1 -1 -0 0 -0 -0 -0 -1 -1 -1 -1 -1 -1 -1 -1 -1
1 0 0 0 0 0 -0 -0 0 0 0 1 1 1 1 1 1 1 2 3 3 2 1 0 -0 -1 -1 -1 -2 -0 -0 -0 0 1 0 -0 -0 -1 -1 -1 -1 -1 -1
0 -0 0 0 0 -0 -0 -0 0 0 0 1 1 1 1 1 1 1 2 2 3 3 2 1 -0 -1 -1 -1 -1 -1 -1 0 1 1 1 1 0 0 0 0 -0 -0 -0
0 -0 -0 0 0 -0 0 0 1 1 1 0 1 0 1 1 0 0 1 1 2 4 4 2 2 -1 -1 -1 -1 -2 -2 1 0 1 2 2 1 1 1 1 1 1 1
0 0 1 0 0 0 0 0 0 0 1 1 1 1 1 0 0 0 0 1 1 2 4 1 1 -0 -1 -1 -1 -2 -1 1 1 1 2 2 2 2 2 2 2 2 1
0 0 0 1 1 1 0 1 0 1 1 1 0 1 1 0 1 1 0 0 1 1 3 2 -0 -0 0 0 -1 -1 -1 -1 -1 2 2 2 4 3 3 3 3 2 2
0 0 0 1 1 1 0 1 1 1 1 1 1 1 1 1 1 0 1 0 1 0 2 3 1 1 1 -0 -0 -0 -0 -1 -1 2 3 3 4 5 4 4 4 4 4
0 0 0 1 1 1 1 0 1 1 1 1 1 1 1 1 1 1 1 1 1 1 1 2 2 1 0 0 0 0 0 -0 -1 2 3 4 4 4 4 5 5 5 5
0 0 0 1 0 1 1 0 1 1 1 1 0 1 0 1 1 1 1 1 0 1 1 2 2 2 1 0 0 2 2 0 1 -1 1 2 3 4 5 5 5 5 5
1 1 1 1 0 1 1 1 1 1 1 1 1 1 0 1 2 1 1 0 1 1 2 2 3 2 2 2 2 1 2 2 1 0 0 -0 -0 0 2 4 3 4 5
1 1 1 1 1 1 9 8 2 1 1 1 1 1 0 2 2 4 4 5 2 1 2 2 3 3 2 2 1 2 2 3 4 0 1 1 -0 0 1 -0 4 6 6
1 1 1 1 1 1 10 10 7 1 1 1 1 1 1 0 1 0 5 6 5 5 4 1 2 2 2 1 1 2 2 2 2 1 1 2 1 1 0 2 6 7 7
1 2 1 1 1 1 11 10 8 0 1 1 0 0 0 0 0 0 0 1 0 0 0 0 0 1 0 -0 0 1 1 1 1 1 -0 3 2 3 2 2 7 7 8
2 2 1 1 2 2 12 10 4 1 1 1 0 0 0 0 7 8 1 1 1 1 6 7 7 7 7 6 3 1 2 3 3 2 1 2 2 3 2 3 4 7 8
2 2 2 1 4 1 12 10 4 1 1 1 0 0 8 3 11 10 1 1 2 2 1 1 0 3 5 3 6 -0 1 3 3 3 1 2 2 2 3 1 2 4 5

GFSMA_con_lsi_075.txt.gz
Lid_Strength_Index
-1 -1 -1 -1 -1 -1 -1 -1 -1 -1 -1 -1 -1 -1 -1 -1 -1 -1 -1 -3 -2 -2 -1 -1 -1 -1 -2 -2 -2 -2 -2 -1 -1 -1 -1 -1 -2 -2 -1 -2 -1 -1 -1
-1 -1 -1 -1 -1 -1 -1 -1 -1 -1 -1 -1 -1 -1 -1 -1 -1 -2 -1 -2 -3 -2 -2 -2 -1 -1 -2 -2 -2 -2 -2 -2 -1 -1 -1 -1 -1 -2 -2 -1 -2 -1 -1
-1 -1 -0 -0 -1 -2 -2 -1 -1 -1 -0 -1 -1 -1 -1 -1 -1 -1 -1 -1 -1 -2 -2 -2 -2 -1 -2 -2 -2 -2 -2 -2 -1 -1 -1 -1 -1 -1 -2 -2 -2 -2 -1
-2 -1 -0 -0 -1 -1 -1 -1 -0 0 0 0 0 -0 -0 -1 -1 -1 -1 -1 -1 -1 -1 -2 -2 -2 -2 -2 -2 -2 -2 -2 -2 -1 -1 -1 -1 -1 -1 -2 -2 -1 -1
-1 -0 -0 -1 -2 -1 -0 -0 0 0 1 1 1 0 -0 -0 -0 -0 -0 -1 -2 -1 -1 -1 -1 -1 -2 -2 -2 -2 -2 -2 -2 -2 -1 -1 -1 -1 -1 -1 -1 -2 -1
-1 -0 -0 -1 -1 -0 0 -0 0 0 0 1 1 1 0 -0 -0 -0 -0 -0 -1 -1 -2 -1 -1 -1 -2 -2 -2 -2 -2 -2 -2 -2 -1 -1 -1 -1 -1 -1 -1 -2 -1
-1 -0 -0 -0 -0 0 0 -0 0 1 1 0 1 1 1 0 0 0 -0 0 -0 -0 -1 -1 -1 -1 -1 -1 -1 -2 -2 -2 -2 -2 -1 -1 -1 -1 -1 -1 -1 -1 -1
-1 -1 0 -0 -0 0 0 0 1 1 1 0 2 2 4 2 1 1 0 0 -0 -0 -0 -0 -1 -1 -1 -1 -1 -1 -1 -2 -2 -2 -1 -1 -1 -1 -1 -1 -1 -1 -1
-0 -0 -0 0 -0 0 1 0 1 1 2 1 1 2 4 5 3 2 1 1 0 0 -0 -0 -0 -1 -1 -1 -1 -1 -1 -1 -2 -2 -1 -1 -1 -1 -1 -1 -1 -1 -1
-0 -0 -0 -0 -0 0 0 1 0 1 1 2 1 1 1 2 5 4 2 1 0 0 -0 -0 -0 -1 -2 -1 -2 -1 -1 -1 -1 -2 -1 -1 -1 -1 -1 -1 -1 -1 -1
-0 -0 -0 -0 0 0 0 0 0 1 1 1 2 2 2 2 2 4 5 4 1 1 0 0 -0 -0 -1 -2 -1 -1 -1 -1 -1 -1 -1 -1 -1 -1 -1 -1 -1 -1 -1
1 0 0 -0 -0 0 0 0 0 1 1 1 1 1 2 3 3 4 4 3 3 2 1 0 0 -0 -1 -1 -1 -1 -0 0 0 -0 -1 -1 -1 -1 -1 -1 -1 -1 -1
1 1 0 0 0 0 0 -0 0 1 1 1 1 1 1 1 1 2 3 3 3 2 2 0 0 -0 -1 -2 -1 -1 -0 -0 0 1 0 -0 -0 -1 -1 -1 -1 -1 -1
0 -0 0 0 0 0 0 0 0 1 0 1 1 1 1 1 1 1 2 3 4 3 2 1 -0 -0 -0 -1 -1 -1 -1 1 0 1 1 1 -0 0 -0 0 -0 -0 -0
0 -0 -0 0 0 0 0 0 1 1 1 1 1 1 1 1 1 1 1 1 3 5 4 2 2 -1 -1 -1 -1 -1 -1 1 1 1 2 2 1 1 1 1 1 1 1
0 0 0 0 1 0 0 0 1 1 1 1 1 1 1 1 1 0 1 1 1 2 4 2 1 0 -1 -1 -1 -1 -1 1 2 2 2 2 2 2 2 2 2 2 2
0 1 0 1 1 1 1 1 1 1 1 1 1 1 1 0 1 1 1 1 1 1 3 2 1 0 0 -0 -0 -1 -1 -1 -1 3 1 2 3 3 3 3 3 2 2
0 1 1 1 1 1 1 1 1 1 1 2 1 1 1 1 1 0 1 1 1 -0 2 2 1 1 1 -0 -0 -0 -0 -1 -1 2 2 3 4 4 4 4 4 4 4
1 1 1 1 1 1 1 1 1 1 1 1 1 1 1 1 1 1 1 1 1 1 1 2 2 1 1 0 1 0 -0 -0 -1 2 3 3 4 4 5 5 5 5 5
1 1 1 1 1 1 1 1 1 1 1 1 1 1 1 1 1 1 1 1 1 1 1 2 2 2 2 1 1 2 2 0 1 -1 1 1 3 4 4 5 5 5 6
1 1 1 1 1 1 1 1 1 1 1 1 1 1 0 1 2 1 1 1 1 1 2 2 2 2 2 2 2 1 2 1 1 0 0 0 -0 -0 2 4 3 4 6
1 1 1 1 1 1 6 7 2 1 1 1 2 1 1 2 3 4 5 5 2 1 2 2 3 3 2 2 1 2 2 3 4 -0 1 1 -0 0 -0 -0 4 6 6
1 1 1 1 1 1 10 9 7 1 1 1 1 1 1 1 1 0 5 6 5 6 4 1 2 2 3 1 1 2 2 2 2 1 1 3 0 1 0 2 7 7 8
2 2 2 1 1 1 10 10 8 1 1 1 1 1 1 1 1 1 1 1 1 0 0 0 0 0 0 0 0 1 1 1 1 1 0 4 2 2 2 1 7 7 7
2 2 1 1 2 2 11 10 5 1 2 1 1 0 1 1 6 7 1 1 1 1 7 8 8 8 7 7 3 1 2 3 3 2 1 2 2 3 2 3 4 7 8
2 2 2 1 3 1 13 11 4 1 2 2 1 1 9 2 10 9 1 1 3 2 1 1 0 3 4 4 6 0 1 3 3 4 1 2 2 2 4 2 3 5 5

GFSMA_con_lsi_078.txt.gz
Lid_Strength_Index
0 -0 -0 -0 -0 -0 -0 0 -0 0 0 -0 -0 -0 0 -0 -0 -0 -0 -2 -2 -2 -2 -2 -1 -2 -1 -1 -1 -2 -2 -1 -1 -1 -1 -1 -2 -2 -2 -2 -2 -2 -2
-0 -0 0 0 -0 -0 -0 -0 0 0 0 0 0 0 0 -0 -0 -0 -0 -1 -2 -2 -2 -2 -1 -1 -1 -1 -2 -2 -2 -2 -1 -1 -1 -1 -1 -1 -2 -2 -2 -1 -2
-0 -0 0 0 -0 -1 -0 -0 -0 0 0 0 0 0 0 -0 -0 -0 -0 -0 -1 -2 -2 -2 -2 -2 -1 -2 -2 -2 -2 -2 -2 -1 -1 -1 -1 -1 -1 -2 -2 -1 -1
-1 -0 0 0 -0 -0 0 0 0 1 1 1 1 1 0 0 0 0 -0 -0 -0 -0 -1 -1 -2 -2 -1 -1 -2 -2 -2 -2 -2 -1 -1 -1 -1 -1 -1 -1 -2 -2 -1
-0 0 0 0 -0 0 0 0 1 1 1 1 1 1 1 1 1 0 0 0 -0 -0 -0 -1 -1 -1 -1 -2 -2 -2 -2 -2 -2 -2 -2 -1 -1 -1 -1 -1 -1 -2 -2
-0 0 0 0 0 0 1 1 1 1 1 1 1 1 1 1 0 1 1 0 0 -0 -0 -0 -0 -1 -1 -2 -2 -2 -2 -2 -2 -2 -2 -1 -1 -1 -1 -1 -1 -1 -1
-0 0 0 0 0 1 1 1 1 2 2 1 2 2 2 1 1 1 0 0 0 0 -0 -0 -0 -0 -0 -1 -1 -1 -2 -2 -2 -2 -1 -1 -1 -1 -1 -1 -1 -1 -1
-0 0 0 1 0 1 1 1 1 2 2 1 3 3 5 4 2 1 1 1 1 0 0 0 -0 -0 -0 -0 -0 -1 -2 -2 -2 -2 -1 -1 -1 -1 -1 -1 -1 -1 -1
0 0 0 0 1 1 1 1 1 2 3 2 1 3 6 6 4 2 2 1 1 1 1 0 0 -0 -0 0 -1 -1 -1 -1 -2 -2 -1 -1 -1 -1 -1 -1 -1 -1 -1
0 0 0 0 0 0 1 1 1 1 2 3 2 1 2 3 6 6 3 2 1 1 1 1 0 0 0 -0 -1 -1 -1 -1 -2 -2 -1 -1 -2 -1 -1 -1 -1 -1 -1
0 0 0 0 1 1 1 1 1 1 1 2 2 2 3 3 3 4 6 4 2 1 1 1 1 0 0 0 -0 -0 -0 -0 -1 -1 -1 -1 -2 -1 -1 -1 -1 -1 -1
1 1 0 0 0 1 1 1 1 1 1 1 1 2 3 4 4 4 5 4 4 3 1 1 1 0 0 -0 -1 -1 -0 0 0 0 -0 -0 -1 -1 -1 -1 -1 -1 -1
1 1 1 1 1 1 1 1 1 1 1 1 2 2 2 2 2 3 3 4 5 3 3 1 1 0 0 -0 -0 -1 -0 0 1 1 1 0 -0 -1 -1 -1 -1 -1 -1
1 0 1 1 1 1 1 1 1 1 1 1 1 2 2 2 2 2 3 4 5 5 3 3 1 1 0 0 -0 -0 0 1 1 1 2 1 1 0 0 -0 0 -0 -0
1 1 0 1 1 1 1 1 1 1 1 1 1 1 2 1 1 1 2 2 4 6 5 3 3 1 0 0 -0 0 0 1 1 2 2 2 2 1 1 1 1 1 1
1 1 1 1 1 1 1 1 1 1 1 1 1 1 1 1 1 1 2 2 2 4 6 3 3 1 1 0 0 0 0 1 2 3 2 2 3 2 1 2 2 2 2
1 1 1 1 1 1 1 1 1 1 2 2 1 2 2 1 2 2 1 2 2 2 4 3 2 1 1 1 1 1 0 0 1 3 3 2 3 3 2 2 2 3 2
1 1 1 1 1 1 1 1 2 1 2 2 2 2 2 1 2 2 2 2 2 2 3 4 3 2 2 1 1 1 1 0 0 3 4 4 4 4 4 4 4 4 4
1 1 1 1 1 1 1 1 1 2 2 2 2 2 2 2 2 2 2 2 2 2 2 3 3 2 2 1 2 1 1 1 -0 2 4 3 3 4 4 5 5 5 5
1 1 1 1 1 1 1 1 1 2 2 1 1 1 2 2 2 2 2 2 2 2 3 3 3 3 2 2 2 3 3 1 1 -0 2 2 3 3 4 5 5 5 6
1 1 1 1 1 1 1 1 1 2 2 2 2 1 1 2 3 2 2 2 2 2 3 3 4 3 3 3 3 2 3 2 2 1 1 1 2 2 3 4 3 4 6
1 1 1 1 2 1 5 7 3 2 2 2 2 2 1 4 4 6 7 5 2 2 3 3 4 4 3 3 2 3 3 3 5 1 2 2 0 1 1 1 4 6 7
1 2 2 2 2 1 7 10 8 1 2 2 2 2 2 1 4 4 7 5 6 5 4 2 3 3 3 2 2 3 3 3 4 2 2 3 1 2 1 2 6 7 7
2 2 2 2 2 2 8 11 9 1 1 2 2 1 2 2 1 1 2 2 1 2 2 1 1 2 1 1 1 1 2 2 1 1 1 4 2 2 2 3 7 8 8
2 2 2 2 2 2 11 12 7 2 2 2 1 1 1 1 7 7 2 2 2 3 8 8 8 9 8 8 5 1 3 3 4 3 1 2 2 3 2 3 5 7 8
2 2 2 2 3 2 13 12 5 2 2 2 2 1 7 2 10 9 2 2 3 2 2 2 2 4 4 4 6 1 1 3 4 4 2 3 2 3 4 2 4 5 6

GFSMA_con_lsi_081.txt.gz
Lid_Strength_Index
0 0 0 1 1 1 1 1 1 0 0 0 1 1 1 1 1 0 0 -2 -2 -2 -2 -2 -2 -1 -1 -1 -1 -2 -2 -2 -1 -1 -1 -1 -2 -2 -2 -2 -2 -2 -2
0 0 1 0 0 1 1 1 1 1 0 0 1 1 1 1 0 0 0 -0 -2 -2 -2 -2 -2 -1 -1 -1 -1 -2 -2 -2 -2 -1 -1 -1 -1 -2 -2 -2 -2 -2 -2
1 0 0 0 1 1 2 1 1 1 1 1 1 0 0 1 0 0 1 1 -0 -2 -2 -2 -1 -1 -2 -1 -1 -2 -2 -2 -2 -2 -1 -1 -1 -1 -2 -2 -2 -2 -2
0 1 0 1 1 1 1 1 2 2 2 2 2 1 1 1 1 1 1 1 1 0 -1 -1 -1 -1 -1 -1 -1 -2 -2 -2 -2 -2 -1 -1 -1 -1 -1 -2 -2 -2 -2
0 0 1 1 1 1 1 2 2 1 2 2 1 1 1 1 1 0 0 1 1 0 1 -0 -1 -1 -1 -2 -2 -2 -2 -2 -1 -2 -2 -2 -1 -1 -1 -1 -1 -1 -1
0 0 0 2 1 2 2 2 2 1 1 2 1 2 2 1 0 1 1 1 1 0 1 1 0 -0 -1 -1 -2 -2 -2 -2 -2 -2 -2 -1 -2 -1 -1 -1 -1 -1 -1
0 0 1 1 2 2 2 2 1 2 2 2 2 2 2 1 1 1 1 1 1 1 1 1 0 0 -0 -1 -1 -2 -2 -2 -2 -2 -1 -1 -1 -1 -1 -1 -1 -1 -1
0 1 1 1 2 2 2 2 1 2 2 1 3 3 5 3 2 1 2 1 1 1 1 1 0 0 0 0 -0 -1 -2 -2 -2 -2 -1 -1 -1 -2 -1 -1 -1 -1 -1
0 0 0 0 1 2 2 1 1 2 3 2 2 3 6 6 4 2 3 2 1 1 1 1 1 0 0 0 -0 -1 -1 -1 -2 -2 -1 -1 -1 -2 -1 -1 -1 -1 -1
1 0 0 0 1 1 1 1 1 1 2 3 4 1 2 3 5 6 3 3 2 1 2 2 1 1 0 1 -0 -1 -0 -0 -2 -2 -2 -1 -1 -1 -1 -1 -1 -1 -1
1 0 1 0 1 1 1 1 1 1 1 3 4 4 2 2 2 4 6 4 3 2 2 2 1 1 1 1 1 0 0 0 -0 -1 -1 -1 -1 -1 -1 -1 -1 -1 -1
1 1 1 1 0 1 1 1 1 1 1 2 2 2 3 4 4 4 5 5 4 3 2 2 1 2 1 1 -0 0 1 1 1 1 0 -0 -1 -1 -1 -1 -1 -1 -1
2 1 1 1 1 1 1 1 1 1 1 2 2 2 2 2 2 3 4 4 5 4 3 2 1 1 1 1 0 0 0 1 1 2 1 1 0 -0 -1 -1 -1 -1 -1
2 1 1 1 1 1 1 0 1 1 2 3 2 1 2 2 1 2 3 4 6 5 4 4 2 2 2 1 0 0 1 2 2 2 2 2 1 1 0 0 -0 -0 -0
1 1 1 1 1 1 1 1 1 1 1 2 1 1 2 1 1 1 2 3 5 7 6 4 3 3 2 1 0 1 1 1 2 2 3 2 2 2 1 1 1 1 1
1 1 1 1 1 1 1 1 1 1 1 1 1 2 1 1 1 1 2 3 4 5 6 4 3 2 1 1 0 1 1 2 2 3 3 3 3 3 2 2 2 2 1
1 1 1 1 1 2 2 1 1 1 2 2 1 2 2 1 2 2 2 3 4 4 5 3 3 2 2 2 2 2 1 2 2 3 3 3 4 3 3 2 2 2 2
1 1 1 1 1 1 2 3 2 1 2 2 2 2 2 1 2 2 2 3 4 4 5 5 3 3 3 3 2 2 2 0 1 2 3 4 5 4 4 4 3 4 4
1 1 1 1 1 1 1 1 2 1 2 2 2 2 2 2 2 2 3 4 4 3 4 4 4 3 3 2 3 2 2 2 0 2 4 4 4 4 4 4 5 6 6
1 1 1 1 1 1 1 1 1 2 2 2 1 2 2 2 2 2 3 4 4 3 3 4 4 4 4 3 3 4 4 3 2 1 2 3 3 4 4 4 5 5 7
2 1 1 1 1 1 1 1 1 2 2 2 2 2 2 2 3 3 3 3 4 4 4 5 4 5 4 4 4 4 4 4 3 1 2 3 3 3 3 4 3 4 6
3 2 2 2 1 1 4 6 5 2 2 2 2 2 1 5 5 7 6 5 4 4 4 4 5 5 4 4 4 4 4 4 5 2 2 2 2 2 3 1 4 5 7
3 4 3 2 2 1 5 6 6 4 2 2 2 2 2 1 5 5 8 8 6 6 4 3 4 4 4 3 3 4 4 4 4 3 3 3 2 2 1 1 6 6 7
4 4 4 4 3 1 6 7 7 3 2 2 2 2 3 4 5 5 5 4 4 4 4 2 3 3 3 2 2 3 3 4 3 2 2 4 2 3 2 3 7 7 8
4 4 4 4 4 2 5 6 6 2 3 2 2 2 2 3 10 8 4 4 5 5 8 9 8 9 10 9 5 3 4 3 4 3 2 4 3 3 2 2 4 7 8
4 3 3 3 3 2 5 8 7 2 3 2 2 2 7 4 11 10 4 4 5 6 5 5 5 6 6 6 7 3 3 3 4 4 2 4 3 3 4 2 3 5 6

GFSMA_con_lsi_084.txt.gz
Lid_Strength_Index
1 0 1 1 1 1 1 2 2 1 1 0 0 1 2 1 1 1 1 -2 -1 -2 -2 -2 -2 -2 -1 -1 -1 -1 -1 -2 -2 -1 -1 -1 -2 -2 -2 -2 -2 -1 -2
0 0 1 1 2 2 1 2 2 2 2 1 0 0 1 1 1 1 1 0 -1 -1 -2 -2 -2 -2 -2 -1 -1 -1 -1 -1 -1 -1 -1 -1 -1 -1 -2 -1 -2 -1 -2
0 0 0 1 1 1 1 2 2 2 2 1 2 2 1 1 1 1 1 1 0 -1 -1 -2 -1 -1 -1 -2 -1 -1 -1 -1 -2 -2 -1 -1 -1 -1 -1 -2 -2 -2 -2
0 0 1 1 1 1 2 2 2 3 3 2 2 2 1 1 1 1 1 1 2 1 -1 -1 -1 -1 -1 -1 -1 -1 -1 -1 -1 -1 -1 -2 -1 -1 -1 -1 -1 -1 -2
-0 0 0 0 1 2 2 2 3 3 3 2 1 2 2 2 2 1 2 1 1 1 1 -0 -1 -1 -1 -1 -2 -1 -1 -1 -1 -1 -2 -2 -2 -1 -1 -1 -1 -1 -1
-0 0 0 1 1 2 2 3 3 2 2 2 2 2 2 2 2 1 1 1 1 2 1 1 1 -0 -1 -1 -1 -2 -2 -2 -1 -1 -1 -1 -1 -1 -1 -1 -1 -1 -1
0 0 0 1 2 2 3 3 3 3 2 2 3 3 2 1 1 1 1 2 2 1 1 1 1 1 0 -1 -1 -1 -2 -2 -2 -2 -1 -1 -1 -1 -1 -1 -1 -1 -1
0 0 0 1 2 2 3 3 3 3 2 2 3 4 5 4 3 1 1 1 1 1 1 1 1 1 1 1 1 -1 -2 -2 -2 -2 -1 -1 -1 -1 -1 -1 -1 -1 -1
0 0 1 1 1 2 2 3 3 3 3 2 2 3 6 7 5 2 2 1 1 1 1 1 1 1 1 1 1 -0 -1 -1 -2 -2 -1 -1 -1 -1 -1 -1 -1 -1 -1
1 1 1 1 2 2 2 3 1 1 2 3 3 2 3 3 6 6 3 2 1 1 1 1 1 1 1 1 0 -0 0 -0 -2 -1 -1 -1 -1 -1 -1 -1 -1 -1 -1
0 0 1 1 1 1 2 2 1 1 1 2 2 5 5 4 3 5 6 4 2 1 1 1 2 2 1 1 1 1 0 1 0 -0 -1 -1 -1 -1 -1 -1 -1 -1 -1
1 0 0 0 1 1 1 2 1 1 1 1 2 2 4 4 4 4 5 5 5 3 2 1 2 2 2 2 0 1 1 1 1 1 1 -0 -1 -1 -1 -1 -1 -1 -1
4 3 1 1 1 0 0 1 2 1 1 2 2 2 3 3 2 3 4 5 5 3 3 2 2 1 2 2 2 0 0 2 2 2 2 1 0 0 -0 -1 -1 -1 -1
2 2 1 1 1 1 1 1 1 2 1 1 2 1 2 3 2 2 3 4 6 5 4 3 3 2 2 2 1 1 1 2 2 3 3 2 2 1 1 0 -0 -0 -0
1 1 1 1 1 1 1 1 1 1 1 1 1 1 2 2 1 1 2 2 4 7 6 4 4 2 2 2 2 1 2 2 2 3 3 3 2 2 2 2 1 1 1
1 1 1 1 1 1 1 1 1 1 1 1 1 1 2 2 1 1 1 2 3 4 6 4 3 3 3 2 2 2 1 2 3 3 3 3 3 3 3 2 2 2 1
1 1 1 1 1 1 1 1 1 1 2 2 1 1 2 1 2 1 1 2 3 5 5 5 4 3 4 3 2 2 1 2 2 4 3 4 4 4 3 3 3 2 2
1 1 1 1 1 1 1 1 2 1 2 2 2 2 2 1 2 2 2 3 3 4 5 5 4 4 4 4 3 3 2 1 2 2 4 4 5 5 5 5 4 3 4
1 1 1 1 1 1 1 1 1 1 2 2 2 2 2 2 2 2 2 3 4 4 5 5 6 5 4 3 4 4 3 3 1 1 4 4 5 5 5 5 5 5 5
3 3 3 2 1 1 2 2 1 1 1 1 1 1 1 2 2 2 2 2 4 4 5 6 6 5 5 4 4 4 4 4 3 1 2 3 3 4 5 5 5 5 6
3 3 3 2 1 1 2 2 1 1 2 2 1 1 1 2 4 3 2 3 5 4 6 6 6 6 6 5 4 4 4 4 4 3 3 2 2 3 3 4 3 3 6
3 3 3 3 3 2 5 4 3 1 1 2 2 2 1 4 5 7 7 7 5 5 5 6 6 6 6 5 5 5 5 5 5 3 3 3 2 3 2 2 4 5 6
4 4 3 3 3 3 5 6 5 2 2 2 2 2 2 1 4 3 8 8 8 8 6 5 6 6 5 4 4 5 5 5 5 4 3 4 1 2 1 1 5 6 7
4 3 3 4 4 4 6 7 6 3 1 2 1 1 2 2 3 3 4 3 4 5 5 4 4 4 3 4 3 3 4 5 4 4 3 4 2 3 2 2 7 7 8
5 4 4 4 5 5 7 7 6 3 2 2 1 1 1 2 7 11 3 4 6 7 10 10 8 9 9 9 5 4 5 5 5 5 2 4 3 3 2 2 3 7 8
4 4 4 4 4 5 7 7 6 3 2 2 2 1 6 3 11 10 3 5 6 6 6 6 6 7 7 7 8 3 4 5 5 5 3 3 3 3 4 2 3 4 5